                ,  0.675,  0.825,  0.975,  1.125,  1.275,  1.425,  1.575,  1.725,  1.875,  2.025,  2.175,  2.325,  2.475,  2.625,  2.775,  2.925,  3.075,  3.225,  3.375,  3.525,  3.675,  3.825,  3.975,  4.125,  4.275,  4.425,  4.575,  4.725,  4.875,  5.025,  5.175,  5.325,  5.475,  5.625,  5.775,  5.925,  6.075,  6.225,  6.375,  6.525,  6.675,  6.825,  6.975,  7.125,  7.275,  7.425,  7.575,  7.725,  7.875,  8.025,  8.175,  8.325,  8.475,  8.625,  8.775,  8.925,  9.075,  9.225,  9.375,  9.525,  9.675,  9.825,  9.975
2002/07/25 00:00,  999.0,   -0.2,   -0.5,   -0.5,   -0.7,   -0.5,   -0.4,   -0.4,   -0.1,   -0.1,    0.0,   -0.1,   -0.2,   -0.3,   -0.2,   -0.1,   -0.1,   -0.2,   -0.1,   -0.2,   -0.1,   -0.2,   -0.1,   -0.1,   -0.1,   -0.1,   -0.1,   -0.1,   -0.1,   -0.2,   -0.1,   -0.1,   -0.1,   -0.1,   -0.1,   -0.2,   -0.3,   -0.2,   -0.3,   -0.2,   -0.3,  999.0,   -0.3,  999.0,  999.0,  999.0,   -0.2,  999.0,  999.0,  999.0,  999.0,  999.0,   -0.0,  999.0,  999.0,  999.0,  999.0,  999.0,  999.0,  999.0,  999.0,  999.0,  999.0
2002/07/25 00:10,  999.0,    0.1,   -0.2,   -1.2,   -1.1,   -0.9,   -0.4,   -0.4,    0.0,    0.1,    0.1,    0.1,    0.1,    0.0,    0.0,   -0.0,   -0.0,   -0.1,    0.0,    0.0,    0.1,    0.1,    0.1,    0.1,    0.1,    0.1,    0.0,    0.1,    0.1,    0.1,  999.0,   -0.0,   -0.1,  999.0,   -0.2,   -0.3,   -0.3,   -0.4,   -0.3,   -0.4,   -0.5,  999.0,   -0.6,  999.0,  999.0,  999.0,  999.0,  999.0,  999.0,  999.0,  999.0,  999.0,  999.0,  999.0,  999.0,  999.0,  999.0,  999.0,  999.0,  999.0,  999.0,  999.0,  999.0
2002/07/25 00:20,  999.0,   -0.1,   -0.3,   -0.3,   -0.5,   -0.5,   -0.6,   -0.6,   -0.4,   -0.4,   -0.6,   -0.6,   -0.5,   -0.4,   -0.3,   -0.2,   -0.0,    0.3,    0.2,    0.3,    0.3,    0.2,    0.2,    0.2,    0.3,    0.2,    0.1,    0.1,    0.0,    0.0,  999.0,   -0.3,   -0.4,   -0.5,   -0.5,   -0.7,   -0.7,   -0.7,   -0.6,   -0.6,   -0.5,  999.0,  999.0,  999.0,  999.0,  999.0,  999.0,  999.0,  999.0,  999.0,  999.0,  999.0,  999.0,  999.0,  999.0,  999.0,  999.0,  999.0,  999.0,  999.0,  999.0,  999.0,  999.0
2002/07/25 00:30,  999.0,   -0.1,   -0.4,   -0.4,   -0.4,   -0.1,   -0.0,   -0.2,   -0.4,   -0.5,   -0.5,   -0.5,   -0.4,   -0.4,   -0.5,   -0.4,   -0.3,   -0.2,   -0.2,   -0.3,   -0.3,   -0.2,   -0.2,   -0.2,   -0.2,   -0.2,   -0.3,   -0.2,   -0.2,   -0.2,   -0.3,   -0.5,   -0.6,   -0.7,   -0.7,   -0.8,   -0.7,   -0.7,   -0.6,   -0.6,   -0.6,   -0.6,   -0.8,   -0.8,   -1.2,  999.0,  999.0,  999.0,  999.0,  999.0,   -1.2,   -1.7,  999.0,  999.0,  999.0,  999.0,  999.0,  999.0,  999.0,  999.0,  999.0,  999.0,  999.0
2002/07/25 00:40,  999.0,   -0.1,    0.1,    0.3,   -0.2,    0.2,    0.2,    0.2,    0.2,    0.2,   -0.0,    0.1,   -0.1,   -0.3,   -0.5,   -0.4,   -0.3,   -0.2,   -0.1,   -0.1,   -0.1,   -0.1,   -0.1,   -0.2,   -0.2,   -0.1,   -0.1,   -0.1,   -0.1,   -0.0,   -0.1,   -0.2,   -0.2,   -0.4,   -0.5,   -0.6,   -1.0,   -1.1,   -0.9,   -0.8,   -0.8,   -0.9,  999.0,   -0.9,   -1.1,  999.0,   -0.7,  999.0,  999.0,  999.0,   -0.7,  999.0,  999.0,  999.0,  999.0,  999.0,  999.0,  999.0,  999.0,  999.0,  999.0,  999.0,  999.0
2002/07/25 00:50,  999.0,   -0.1,    0.0,    0.3,    0.5,    0.4,    0.4,    0.2,    0.2,    0.2,    0.0,   -0.1,   -0.0,   -0.0,   -0.2,   -0.2,   -0.2,   -0.1,    0.0,    0.0,    0.0,    0.1,    0.1,    0.0,   -0.1,   -0.2,   -0.2,   -0.3,   -0.3,   -0.3,   -0.4,   -0.5,   -0.4,   -0.6,   -0.7,   -1.0,   -1.1,   -0.6,   -1.1,   -1.1,   -1.0,   -0.9,   -0.8,   -1.0,   -1.0,   -1.4,  999.0,  999.0,  999.0,  999.0,  999.0,  999.0,  999.0,   -1.3,  999.0,  999.0,  999.0,  999.0,  999.0,  999.0,  999.0,  999.0,  999.0
2002/07/25 01:00,  999.0,    0.1,    0.1,    0.0,    0.2,    0.2,    0.4,    0.2,    0.0,   -0.0,   -0.1,   -0.1,   -0.1,   -0.1,   -0.0,    0.1,    0.0,    0.0,   -0.0,   -0.1,   -0.1,   -0.2,   -0.2,   -0.4,   -0.4,   -0.5,   -0.4,   -0.4,   -0.4,   -0.4,   -0.4,   -0.5,   -0.7,   -0.8,   -1.0,   -1.3,   -1.7,   -2.4,   -2.3,   -1.8,   -1.7,   -1.7,   -1.6,  999.0,   -1.2,  999.0,  999.0,  999.0,  999.0,  999.0,  999.0,  999.0,  999.0,   -1.2,   -1.2,  999.0,  999.0,  999.0,  999.0,  999.0,  999.0,  999.0,  999.0
2002/07/25 01:10,  999.0,   -0.1,   -0.0,   -0.0,   -0.1,   -0.1,   -0.1,    0.0,    0.2,    0.1,    0.2,    0.1,    0.1,    0.0,    0.1,    0.1,    0.1,    0.1,    0.0,    0.1,    0.1,    0.1,    0.1,    0.1,   -0.0,   -0.0,   -0.0,   -0.1,   -0.1,   -0.3,   -0.3,   -0.4,   -0.6,   -0.6,   -0.7,   -0.8,   -1.0,   -1.1,   -1.1,   -1.2,   -1.2,   -1.1,   -1.1,  999.0,  999.0,  999.0,  999.0,  999.0,   -0.5,  999.0,  999.0,  999.0,  999.0,  999.0,   -1.3,  999.0,  999.0,  999.0,  999.0,  999.0,  999.0,  999.0,  999.0
2002/07/25 01:20,  999.0,   -0.1,    0.1,    0.0,    0.0,    0.0,    0.0,    0.0,    0.1,    0.1,    0.1,    0.1,    0.1,    0.1,    0.2,    0.1,    0.1,    0.1,    0.1,    0.1,    0.1,    0.2,    0.2,    0.1,    0.1,    0.1,    0.1,   -0.0,   -0.0,   -0.1,   -0.2,   -0.2,   -0.3,   -0.3,   -0.4,   -0.5,   -0.5,   -0.8,   -0.6,   -0.7,   -0.9,   -0.9,   -0.8,   -0.9,  999.0,  999.0,  999.0,  999.0,  999.0,  999.0,  999.0,  999.0,  999.0,  999.0,  999.0,   -1.3,  999.0,  999.0,  999.0,  999.0,  999.0,  999.0,  999.0
2002/07/25 01:30,  999.0,    0.0,    0.0,    0.0,   -0.0,   -0.1,   -0.0,   -0.0,   -0.0,   -0.1,   -0.0,   -0.2,   -0.2,   -0.1,   -0.1,   -0.1,   -0.1,    0.1,    0.0,    0.1,    0.2,    0.2,    0.3,    0.3,    0.4,    0.5,    0.3,    0.4,    0.2,    0.3,    0.2,    0.2,    0.1,    0.0,   -0.1,   -0.2,   -0.2,  999.0,  999.0,   -0.5,   -0.6,   -0.8,   -0.8,  999.0,  999.0,  999.0,  999.0,  999.0,  999.0,  999.0,  999.0,  999.0,  999.0,  999.0,  999.0,  999.0,   -1.2,  999.0,  999.0,  999.0,  999.0,  999.0,  999.0
2002/07/25 01:40,  999.0,   -0.1,   -0.2,   -0.2,   -0.1,   -0.1,    0.1,    0.1,    0.1,    0.1,    0.1,   -0.2,   -0.2,   -0.3,   -0.2,   -0.3,   -0.4,   -0.4,   -0.4,   -0.4,   -0.3,   -0.3,   -0.3,   -0.3,   -0.2,   -0.2,   -0.1,   -0.1,   -0.1,   -0.2,   -0.1,    0.0,   -0.1,   -0.1,   -0.2,   -0.3,   -0.4,   -0.6,  999.0,   -0.4,   -0.5,  999.0,   -0.3,   -0.4,  999.0,  999.0,  999.0,  999.0,  999.0,  999.0,  999.0,  999.0,  999.0,  999.0,  999.0,  999.0,  999.0,  999.0,  999.0,  999.0,  999.0,  999.0,  999.0
2002/07/25 01:50,  999.0,    0.0,   -0.1,   -0.1,   -0.1,   -0.2,    0.1,    0.1,   -0.0,   -0.1,   -0.1,    0.0,    0.1,   -0.1,   -0.2,   -0.3,   -0.3,   -0.4,   -0.4,   -0.3,   -0.3,   -0.3,   -0.3,   -0.2,   -0.3,   -0.4,   -0.4,   -0.3,   -0.1,   -0.0,    0.1,    0.1,    0.1,    0.0,   -0.1,   -0.2,   -0.3,   -0.2,   -0.3,   -0.5,   -0.5,  999.0,  999.0,   -0.5,  999.0,   -0.7,  999.0,  999.0,  999.0,  999.0,   -0.7,  999.0,  999.0,  999.0,  999.0,  999.0,  999.0,  999.0,  999.0,   -1.2,  999.0,  999.0,  999.0
2002/07/25 02:00,  999.0,   -0.2,   -0.1,   -0.0,    0.1,    0.0,   -0.1,   -0.2,   -0.1,   -0.3,   -0.3,   -0.3,   -0.4,   -0.5,   -0.5,   -0.4,   -0.3,   -0.4,   -0.4,   -0.4,   -0.5,   -0.3,   -0.3,   -0.3,   -0.2,   -0.1,    0.0,    0.0,    0.0,    0.0,    0.1,    0.2,    0.1,    0.1,   -0.0,   -0.1,   -0.1,   -0.2,   -0.1,   -0.4,   -0.4,  999.0,   -0.5,  999.0,  999.0,   -0.8,  999.0,  999.0,  999.0,  999.0,  999.0,  999.0,  999.0,  999.0,  999.0,  999.0,  999.0,  999.0,  999.0,  999.0,  999.0,  999.0,  999.0
2002/07/25 02:10,  999.0,   -0.3,   -0.6,   -0.3,   -0.4,   -0.3,   -0.3,   -0.2,   -0.3,   -0.4,   -0.8,   -0.6,   -0.4,   -0.5,   -0.5,   -0.6,   -0.4,   -0.5,   -0.3,   -0.5,   -0.5,   -0.5,   -0.4,   -0.5,   -0.4,   -0.3,   -0.3,   -0.1,   -0.1,   -0.1,   -0.0,    0.1,    0.1,    0.1,    0.1,    0.2,    0.1,    0.1,    0.1,  999.0,    0.2,    0.1,  999.0,  999.0,  999.0,   -0.1,  999.0,  999.0,  999.0,  999.0,  999.0,  999.0,  999.0,  999.0,  999.0,  999.0,  999.0,  999.0,  999.0,  999.0,  999.0,  999.0,  999.0
2002/07/25 02:20,  999.0,   -0.1,   -0.1,   -0.0,   -0.1,   -0.2,   -0.2,   -0.2,   -0.3,   -0.2,   -0.3,   -0.2,   -0.2,   -0.3,   -0.5,   -0.5,   -0.3,   -0.3,   -0.2,   -0.2,   -0.2,   -0.1,   -0.1,   -0.1,   -0.0,   -0.1,   -0.1,   -0.1,   -0.0,    0.1,    0.2,    0.2,    0.2,    0.2,    0.2,    0.3,  999.0,    0.1,  999.0,  999.0,    0.2,    0.1,    0.0,   -0.0,  999.0,  999.0,  999.0,  999.0,  999.0,  999.0,   -0.4,   -0.5,  999.0,  999.0,  999.0,  999.0,  999.0,  999.0,  999.0,  999.0,  999.0,  999.0,  999.0
2002/07/25 02:30,  999.0,   -0.0,    0.1,    0.2,    0.3,    0.3,    0.2,    0.3,    0.4,    0.4,    0.4,    0.3,    0.3,    0.3,    0.2,    0.2,    0.2,    0.2,    0.1,    0.1,    0.1,    0.1,    0.2,    0.1,    0.2,    0.1,    0.2,    0.0,   -0.1,   -0.1,   -0.2,   -0.2,   -0.2,   -0.3,   -0.4,   -0.3,  999.0,   -0.4,  999.0,   -0.3,   -0.3,   -0.1,   -0.1,   -0.2,   -0.2,  999.0,  999.0,    0.3,  999.0,  999.0,  999.0,  999.0,  999.0,  999.0,  999.0,  999.0,  999.0,  999.0,  999.0,  999.0,  999.0,  999.0,  999.0
2002/07/25 02:40,  999.0,    0.2,    0.5,    0.5,    0.6,    0.6,    0.4,    0.4,    0.3,    0.3,    0.4,    0.4,    0.3,    0.2,    0.3,    0.3,    0.4,    0.3,    0.4,    0.3,    0.3,    0.3,    0.0,    0.4,    0.2,    0.3,    0.3,    0.2,    0.2,    0.1,    0.1,   -0.0,   -0.0,   -0.1,   -0.0,   -0.2,  999.0,  999.0,  999.0,    0.0,    0.1,   -0.0,    0.2,    0.2,    0.4,  999.0,  999.0,  999.0,  999.0,  999.0,  999.0,  999.0,  999.0,  999.0,  999.0,  999.0,  999.0,  999.0,  999.0,  999.0,  999.0,  999.0,  999.0
2002/07/25 02:50,  999.0,    0.1,    0.5,    0.6,    0.6,    0.5,    0.4,    0.4,    0.6,    0.4,    0.4,    0.3,    0.2,    0.0,   -0.0,   -0.1,   -0.1,   -0.1,   -0.3,   -0.2,   -0.3,   -0.2,   -0.1,  999.0,   -0.0,    0.0,   -0.3,   -0.1,   -0.1,   -0.2,   -0.2,   -0.2,   -0.1,    0.0,    0.3,  999.0,  999.0,  999.0,  999.0,    0.4,    0.5,    0.3,    0.5,    0.3,    0.3,    0.7,    0.7,  999.0,  999.0,    0.3,  999.0,  999.0,  999.0,  999.0,  999.0,  999.0,  999.0,  999.0,  999.0,  999.0,  999.0,    0.2,  999.0
2002/07/25 03:00,  999.0,   -0.0,    0.1,    0.3,    0.1,    0.2,    0.4,    0.2,    0.2,    0.2,    0.1,    0.0,   -0.1,   -0.1,   -0.2,   -0.2,   -0.3,   -0.4,   -0.4,   -0.4,   -0.4,   -0.5,   -0.3,  999.0,   -0.3,   -0.3,   -0.2,   -0.2,   -0.2,   -0.2,   -0.3,   -0.2,   -0.3,  999.0,    0.2,  999.0,  999.0,    0.7,  999.0,  999.0,    0.5,    0.5,  999.0,    0.8,    0.8,  999.0,  999.0,  999.0,  999.0,  999.0,    0.4,    0.5,  999.0,  999.0,  999.0,  999.0,  999.0,  999.0,  999.0,  999.0,  999.0,    0.3,  999.0
2002/07/25 03:10,  999.0,   -0.2,    0.1,    0.1,    0.1,    0.2,    0.2,    0.2,    0.1,    0.2,    0.2,    0.0,    0.0,   -0.1,   -0.2,   -0.2,   -0.3,   -0.4,   -0.5,   -0.5,   -0.5,   -0.6,   -0.4,   -0.4,   -0.5,   -0.4,   -0.4,   -0.4,   -0.3,   -0.1,   -0.1,    0.0,   -0.0,  999.0,  999.0,  999.0,    0.4,  999.0,  999.0,  999.0,    0.3,    0.3,    0.3,    0.3,    0.4,  999.0,    0.3,    0.6,  999.0,  999.0,    0.6,    0.6,  999.0,  999.0,  999.0,  999.0,  999.0,  999.0,  999.0,  999.0,  999.0,  999.0,  999.0
2002/07/25 03:20,  999.0,   -0.2,   -0.1,    0.0,   -0.1,    0.0,   -0.0,   -0.1,   -0.1,   -0.1,   -0.1,   -0.1,   -0.2,   -0.3,   -0.3,   -0.3,   -0.3,   -0.5,   -0.5,   -0.5,   -0.6,   -0.6,   -0.6,   -0.6,   -0.6,   -0.5,   -0.5,   -0.4,   -0.3,   -0.1,   -0.1,   -0.1,   -0.0,    0.0,  999.0,  999.0,    0.3,    0.1,  999.0,  999.0,    0.3,    0.4,    0.4,  999.0,  999.0,  999.0,  999.0,    0.3,    0.5,    0.7,  999.0,    0.4,  999.0,  999.0,  999.0,  999.0,  999.0,  999.0,    0.4,  999.0,  999.0,  999.0,  999.0
2002/07/25 03:30,  999.0,   -0.1,   -0.0,   -0.1,   -0.4,    0.0,    0.0,   -0.1,   -0.1,   -0.1,   -0.2,   -0.2,   -0.2,   -0.3,   -0.4,   -0.4,   -0.5,   -0.6,   -0.7,   -0.6,   -0.7,   -0.7,   -0.6,   -0.6,   -0.5,   -0.5,   -0.3,   -0.3,   -0.1,   -0.0,    0.1,    0.1,    0.2,    0.6,  999.0,  999.0,    0.3,    0.5,    0.5,  999.0,  999.0,    0.7,    0.9,  999.0,  999.0,  999.0,  999.0,  999.0,    1.0,    0.9,    0.9,    0.8,  999.0,  999.0,  999.0,  999.0,  999.0,  999.0,  999.0,  999.0,  999.0,  999.0,  999.0
2002/07/25 03:40,  999.0,   -0.2,   -0.1,   -0.1,   -0.2,   -0.2,    0.0,    0.1,   -0.2,   -0.2,   -0.2,   -0.2,   -0.3,   -0.4,   -0.5,   -0.5,   -0.6,   -0.6,   -0.7,   -0.8,   -0.8,   -0.7,  999.0,   -0.4,   -0.4,   -0.3,   -0.2,   -0.1,    0.0,    0.1,    0.2,    0.3,    0.5,    0.8,  999.0,  999.0,    1.0,    0.8,  999.0,  999.0,  999.0,    1.0,    0.9,  999.0,    1.1,    1.4,  999.0,    1.2,  999.0,  999.0,    0.9,    0.9,    0.9,  999.0,  999.0,  999.0,  999.0,  999.0,  999.0,  999.0,  999.0,  999.0,  999.0
2002/07/25 03:50,  999.0,   -0.2,   -0.1,   -0.1,   -0.2,   -0.2,   -0.2,   -0.3,   -0.3,   -0.3,   -0.4,   -0.4,   -0.4,   -0.4,   -0.5,   -0.5,   -0.6,   -0.7,   -0.8,   -0.9,   -1.0,   -1.0,   -1.0,   -1.0,   -0.7,   -0.6,   -0.5,   -0.4,   -0.1,   -0.1,    0.0,    0.4,    0.6,  999.0,  999.0,    0.8,    0.9,    0.9,  999.0,  999.0,  999.0,    0.9,  999.0,  999.0,    1.2,    1.3,  999.0,    1.3,  999.0,  999.0,  999.0,    1.0,  999.0,  999.0,  999.0,  999.0,  999.0,    0.9,  999.0,  999.0,  999.0,  999.0,  999.0
2002/07/25 04:00,  999.0,   -0.2,   -0.0,   -0.1,   -0.3,   -0.3,   -0.4,   -0.4,   -0.5,   -0.5,   -0.5,   -0.6,   -0.7,   -0.8,   -0.9,   -1.0,   -1.0,   -1.0,   -1.2,   -1.2,   -1.3,   -1.2,   -1.3,   -0.9,   -0.9,   -0.7,   -0.5,   -0.1,   -0.0,    0.2,    0.2,    0.5,    0.6,  999.0,  999.0,    0.9,    0.9,    1.0,  999.0,  999.0,    1.2,    1.4,  999.0,    1.4,  999.0,    1.3,  999.0,  999.0,  999.0,  999.0,  999.0,  999.0,    1.2,  999.0,    1.0,  999.0,  999.0,  999.0,  999.0,  999.0,  999.0,  999.0,  999.0
2002/07/25 04:10,  999.0,   -0.0,   -0.1,   -0.2,   -0.4,   -0.3,   -0.3,   -0.3,   -0.3,   -0.4,   -0.5,   -0.6,   -0.6,   -0.7,   -0.8,   -0.8,   -0.9,   -0.9,   -1.0,   -1.1,   -1.1,   -1.0,   -1.0,   -0.8,   -0.7,   -0.5,  999.0,   -0.3,   -0.1,    0.1,    0.2,    0.4,    0.6,    0.6,    0.8,    0.9,    0.9,    0.8,    0.8,    1.0,    1.3,  999.0,    1.2,    1.3,    1.3,    1.2,    1.4,  999.0,  999.0,  999.0,    1.3,  999.0,    1.1,    1.1,  999.0,  999.0,  999.0,    0.9,  999.0,  999.0,  999.0,  999.0,  999.0
2002/07/25 04:20,  999.0,   -0.1,   -0.0,   -0.3,   -0.4,   -0.3,   -0.4,   -0.5,   -0.5,   -0.6,   -0.6,   -0.7,   -0.8,   -0.8,   -0.7,   -0.8,   -0.7,   -0.8,   -0.9,   -1.0,   -1.2,   -1.2,   -1.2,   -1.4,   -1.0,   -0.9,   -0.9,   -0.7,   -0.7,   -0.4,    0.0,    0.3,    0.5,    0.7,    0.9,    1.0,    0.9,  999.0,    0.8,    0.9,    1.0,  999.0,    1.1,    1.2,    1.1,  999.0,    1.3,    1.1,  999.0,  999.0,  999.0,    0.9,  999.0,    0.5,    0.5,  999.0,  999.0,    0.6,  999.0,  999.0,  999.0,  999.0,  999.0
2002/07/25 04:30,  999.0,    0.0,    0.0,   -0.4,   -0.6,   -0.7,   -0.6,   -0.5,   -0.5,   -0.6,   -0.5,   -0.5,   -0.5,   -0.5,   -0.6,   -0.5,   -0.4,   -0.6,   -0.8,   -1.0,   -1.0,   -1.0,   -0.9,   -1.1,  999.0,   -0.2,  999.0,   -0.3,   -0.3,   -0.2,    0.1,    0.3,    0.6,    0.6,    0.7,    0.9,    1.0,    0.6,    0.8,  999.0,    1.0,    0.8,  999.0,  999.0,  999.0,  999.0,    0.8,    1.2,  999.0,  999.0,    0.7,  999.0,    0.6,  999.0,    0.7,  999.0,  999.0,  999.0,  999.0,  999.0,  999.0,    0.7,    0.7
2002/07/25 04:40,  999.0,   -0.1,    0.1,   -0.1,   -0.3,   -0.5,   -0.5,   -0.4,   -0.3,   -0.4,   -0.4,   -0.4,   -0.4,   -0.4,   -0.5,   -0.5,   -0.4,   -0.4,   -0.5,   -0.6,   -0.6,   -0.6,   -0.6,   -0.7,  999.0,   -0.3,   -0.2,   -0.0,    0.1,    0.2,    0.2,    0.4,    0.5,    0.7,    0.7,  999.0,  999.0,    0.6,  999.0,    0.6,    0.7,  999.0,    0.8,    0.7,  999.0,  999.0,    0.7,  999.0,  999.0,  999.0,    0.6,  999.0,  999.0,  999.0,  999.0,  999.0,  999.0,  999.0,  999.0,  999.0,  999.0,  999.0,  999.0
2002/07/25 04:50,  999.0,   -0.1,   -0.0,   -0.1,   -0.2,   -0.2,   -0.3,   -0.3,   -0.3,   -0.4,   -0.4,   -0.4,   -0.4,   -0.3,   -0.3,   -0.3,   -0.3,   -0.2,   -0.2,   -0.2,   -0.3,   -0.4,   -0.3,   -0.5,   -0.3,   -0.2,   -0.1,   -0.1,    0.1,    0.2,    0.3,    0.4,    0.5,    0.7,  999.0,  999.0,  999.0,    0.6,    0.7,    0.6,    0.7,    0.7,    0.8,    0.7,  999.0,    0.5,  999.0,    0.8,  999.0,  999.0,    0.7,  999.0,  999.0,  999.0,  999.0,  999.0,  999.0,  999.0,  999.0,  999.0,  999.0,  999.0,  999.0
2002/07/25 05:00,  999.0,    0.3,    0.2,   -0.2,   -0.1,   -0.1,   -0.3,   -0.4,   -0.3,   -0.2,   -0.1,   -0.2,   -0.1,   -0.1,   -0.1,   -0.1,   -0.1,   -0.1,   -0.2,   -0.2,   -0.4,   -0.4,   -0.3,   -0.4,   -0.3,   -0.4,   -0.3,   -0.3,   -0.2,   -0.1,    0.1,    0.1,    0.3,    0.4,  999.0,  999.0,  999.0,  999.0,    0.3,    0.4,    0.5,    0.7,    0.5,    0.5,    0.5,  999.0,  999.0,    0.5,  999.0,  999.0,    0.3,    0.2,  999.0,  999.0,  999.0,  999.0,  999.0,  999.0,  999.0,  999.0,    0.9,  999.0,  999.0
2002/07/25 05:10,  999.0,   -0.1,    0.1,   -0.2,   -0.3,   -0.4,   -0.3,   -0.3,   -0.2,   -0.2,   -0.3,   -0.3,   -0.3,   -0.3,   -0.3,   -0.3,   -0.3,   -0.3,   -0.2,   -0.2,   -0.3,   -0.3,   -0.3,   -0.3,   -0.1,   -0.2,   -0.2,   -0.1,   -0.0,    0.1,    0.2,    0.4,    0.5,    0.7,  999.0,    0.6,    0.8,    0.6,    0.6,    0.8,    0.6,    0.7,    0.7,    0.6,  999.0,  999.0,  999.0,  999.0,  999.0,  999.0,    0.6,    0.3,    0.3,  999.0,  999.0,  999.0,  999.0,  999.0,  999.0,  999.0,  999.0,  999.0,  999.0
2002/07/25 05:20,  999.0,    0.1,    0.3,    0.1,   -0.1,   -0.2,    0.0,   -0.3,   -0.2,   -0.2,   -0.3,   -0.2,   -0.2,   -0.2,   -0.3,   -0.2,   -0.3,   -0.3,   -0.2,   -0.3,   -0.3,   -0.3,   -0.3,   -0.4,   -0.1,    0.0,    0.1,    0.3,    0.5,    0.6,    0.8,    1.0,    0.9,    0.9,  999.0,    0.8,    0.8,    0.7,    0.6,    0.6,    0.7,    0.8,    0.7,    0.6,  999.0,    0.6,  999.0,  999.0,  999.0,  999.0,  999.0,  999.0,  999.0,    0.6,  999.0,  999.0,  999.0,  999.0,  999.0,  999.0,  999.0,  999.0,  999.0
2002/07/25 05:30,  999.0,    0.3,    0.4,   -0.1,   -0.2,   -0.3,   -0.5,   -0.5,   -0.6,   -0.5,   -0.5,   -0.4,   -0.4,   -0.2,   -0.2,   -0.2,   -0.2,   -0.3,   -0.3,   -0.3,   -0.4,   -0.3,   -0.3,   -0.3,   -0.2,   -0.0,    0.2,    0.3,    0.4,    0.5,    0.6,    0.6,    0.7,  999.0,  999.0,    0.9,    0.7,    0.7,    0.6,    0.5,    0.6,    0.6,    0.7,    0.7,    0.7,    0.6,    0.5,  999.0,    0.6,    0.5,  999.0,  999.0,  999.0,  999.0,  999.0,  999.0,  999.0,  999.0,  999.0,  999.0,  999.0,  999.0,  999.0
2002/07/25 05:40,  999.0,    0.1,   -0.1,   -0.3,   -0.5,   -0.7,   -0.3,   -0.6,   -0.6,   -0.4,   -0.3,   -0.3,   -0.3,   -0.2,   -0.1,   -0.0,   -0.0,    0.1,    0.1,    0.2,    0.1,    0.0,    0.0,    0.1,    0.1,    0.2,    0.3,    0.2,    0.4,    0.2,    0.3,    0.4,    0.5,    0.7,    0.8,    0.9,    0.8,    0.7,    0.6,    0.5,    0.5,    0.6,    0.7,    0.6,    0.6,    0.4,    0.5,  999.0,    0.5,    0.6,  999.0,  999.0,  999.0,  999.0,    0.6,  999.0,  999.0,  999.0,  999.0,  999.0,  999.0,  999.0,  999.0
2002/07/25 05:50,  999.0,   -0.0,   -0.2,   -0.1,   -0.4,   -0.6,   -0.6,   -0.8,   -0.6,   -0.6,   -0.6,   -0.4,   -0.2,   -0.2,   -0.1,   -0.1,   -0.1,   -0.0,    0.1,    0.1,    0.0,    0.1,    0.0,   -0.1,   -0.0,   -0.1,   -0.1,   -0.1,   -0.1,   -0.1,    0.0,    0.2,    0.3,  999.0,    0.4,    0.8,  999.0,  999.0,  999.0,    0.5,  999.0,    0.8,    0.9,    0.6,    0.8,    0.8,    0.6,  999.0,    0.7,    0.9,    0.9,    0.9,  999.0,    0.7,    0.6,  999.0,  999.0,  999.0,  999.0,  999.0,  999.0,  999.0,  999.0
2002/07/25 06:00,  999.0,   -0.2,   -0.2,   -0.1,   -0.3,   -0.5,   -0.6,   -0.4,   -0.6,   -0.6,   -0.6,   -0.5,   -0.6,   -0.6,   -0.4,   -0.4,   -0.4,   -0.3,   -0.1,   -0.1,    0.1,    0.0,   -0.0,   -0.0,   -0.1,   -0.1,   -0.2,    0.0,   -0.0,   -0.0,    0.1,    0.0,  999.0,    0.5,  999.0,    0.6,    0.5,    0.5,    0.5,  999.0,    0.4,    0.5,    0.7,  999.0,    0.6,    0.6,    0.6,  999.0,    0.6,    0.6,  999.0,    0.7,  999.0,  999.0,  999.0,  999.0,  999.0,  999.0,  999.0,  999.0,  999.0,  999.0,  999.0
2002/07/25 06:10,  999.0,    0.0,   -0.1,    0.1,   -0.7,   -1.2,   -0.9,   -1.0,   -0.7,   -0.6,   -0.6,   -0.7,   -0.5,   -0.4,   -0.2,   -0.2,   -0.0,    0.1,    0.1,    0.1,    0.1,    0.1,    0.1,   -0.0,    0.0,   -0.0,   -0.0,   -0.0,   -0.0,   -0.0,    0.0,    0.1,  999.0,  999.0,  999.0,  999.0,  999.0,  999.0,  999.0,  999.0,    0.8,    0.8,    0.8,    0.8,    0.8,    0.7,    0.7,  999.0,    0.6,    0.7,    0.5,    0.6,  999.0,  999.0,  999.0,  999.0,  999.0,  999.0,  999.0,  999.0,  999.0,  999.0,  999.0
2002/07/25 06:20,  999.0,   -0.1,    0.3,    0.2,   -0.0,   -0.2,   -1.0,   -0.1,   -0.3,   -0.1,    0.0,   -0.3,   -0.3,   -0.3,   -0.2,   -0.1,   -0.1,    0.2,    0.2,    0.2,    0.3,    0.3,    0.3,    0.3,    0.3,    0.2,    0.3,    0.4,    0.5,    0.6,    0.7,    0.7,    0.7,  999.0,    0.7,  999.0,  999.0,  999.0,    0.9,    1.0,    1.0,    1.1,    1.1,    1.1,    1.0,  999.0,  999.0,  999.0,  999.0,    0.9,  999.0,  999.0,  999.0,  999.0,  999.0,  999.0,  999.0,  999.0,  999.0,  999.0,  999.0,  999.0,  999.0
2002/07/25 06:30,  999.0,   -0.2,    0.2,    0.1,   -0.5,   -0.3,    0.2,    0.1,   -0.6,    0.3,    0.0,   -0.2,   -0.3,   -0.2,   -0.0,   -0.1,    0.1,    0.4,    0.5,    0.5,    0.7,    0.8,    0.8,    0.8,    0.8,    0.8,    0.8,    0.7,    0.8,    0.9,    1.0,    1.1,    1.1,  999.0,    1.0,    1.1,  999.0,    1.1,    1.2,    1.1,    1.1,    1.1,  999.0,  999.0,    0.9,    1.1,  999.0,  999.0,    0.7,    0.8,  999.0,  999.0,  999.0,  999.0,  999.0,  999.0,  999.0,  999.0,  999.0,  999.0,  999.0,  999.0,  999.0
2002/07/25 06:40,  999.0,   -0.1,    0.2,    0.0,    0.0,   -0.4,    0.3,    0.4,    0.3,    0.5,    0.2,    0.2,    0.4,    0.0,   -0.1,    0.0,    0.2,    0.4,    0.5,    0.5,    0.5,    0.4,    0.4,    0.4,    0.3,    0.3,    0.2,    0.3,    0.4,    0.7,    0.8,    0.8,  999.0,  999.0,  999.0,  999.0,  999.0,    1.0,    1.1,    1.1,    1.1,  999.0,    0.9,  999.0,  999.0,    0.7,  999.0,  999.0,    0.6,  999.0,  999.0,  999.0,  999.0,  999.0,  999.0,  999.0,  999.0,  999.0,  999.0,  999.0,  999.0,  999.0,  999.0
2002/07/25 06:50,  999.0,   -0.0,    0.4,    0.5,    0.3,    0.2,    0.5,   -0.1,    0.2,    0.1,    0.1,    0.1,    0.2,    0.3,    0.4,    0.5,    0.6,    0.7,    0.8,    0.8,    0.8,    0.8,    0.9,    0.8,    0.8,    0.6,    0.7,    0.7,    0.8,    0.8,    0.9,    1.0,    0.9,  999.0,  999.0,  999.0,  999.0,    1.0,    1.0,    1.0,    1.0,  999.0,    1.0,    0.8,    0.6,    0.6,  999.0,    0.7,  999.0,  999.0,  999.0,  999.0,  999.0,  999.0,  999.0,  999.0,  999.0,  999.0,  999.0,  999.0,  999.0,  999.0,  999.0
2002/07/25 07:00,  999.0,   -0.9,   -0.9,   -0.3,   -0.6,   -0.8,   -0.8,   -0.8,   -0.6,   -0.6,   -0.2,    0.1,    0.4,    0.5,    0.6,    0.7,    0.7,    0.9,    1.0,    1.1,    1.2,    1.3,    1.4,    1.2,    1.1,    0.9,    0.9,    0.7,    0.7,    0.7,    0.8,    0.8,    0.7,    0.8,    0.4,  999.0,  999.0,    0.9,    0.7,    0.8,    1.0,    1.0,  999.0,    0.8,    0.7,    0.8,    0.5,    0.6,  999.0,    0.7,    0.8,  999.0,  999.0,  999.0,  999.0,  999.0,  999.0,  999.0,  999.0,  999.0,  999.0,  999.0,  999.0
2002/07/25 07:10,  999.0,   -0.1,   -0.2,   -0.4,   -0.3,   -0.6,   -0.1,   -0.1,    0.2,    0.1,   -0.0,    0.1,    0.1,    0.1,    0.1,    0.1,    0.0,    0.2,    0.3,    0.4,    0.6,    0.7,    0.7,    0.8,    0.8,  999.0,    0.8,    0.7,    0.5,    0.5,    0.5,    0.6,  999.0,  999.0,  999.0,  999.0,  999.0,  999.0,    1.0,  999.0,  999.0,  999.0,    1.1,    1.1,    1.0,    1.0,  999.0,    1.0,  999.0,    1.3,  999.0,    1.2,  999.0,  999.0,  999.0,  999.0,    0.8,    0.6,  999.0,  999.0,  999.0,  999.0,  999.0
2002/07/25 07:20,  999.0,    0.4,    0.2,    0.3,    0.2,   -0.4,    0.0,    0.2,    0.1,    0.1,    0.0,    0.2,    0.2,    0.3,    0.4,    0.4,    0.4,    0.4,    0.5,    0.7,    0.6,    0.6,    0.6,    0.6,    0.6,    0.6,    0.4,    0.4,    0.4,    0.5,    0.5,    0.6,    0.5,    0.6,  999.0,  999.0,    0.5,  999.0,  999.0,  999.0,    1.1,    0.6,    0.8,    0.8,    0.8,    0.9,  999.0,  999.0,  999.0,  999.0,  999.0,  999.0,  999.0,  999.0,  999.0,  999.0,  999.0,  999.0,  999.0,  999.0,  999.0,  999.0,  999.0
2002/07/25 07:30,  999.0,    0.0,    0.1,    0.2,    0.1,    0.4,   -0.6,   -0.1,    0.3,    0.2,    0.1,   -0.0,   -0.0,   -0.0,   -0.0,   -0.0,    0.1,    0.2,    0.2,    0.4,    0.5,    0.6,    0.7,    0.8,    0.7,    0.6,    0.5,    0.6,    0.5,    0.7,    0.8,    0.8,  999.0,  999.0,  999.0,  999.0,    1.0,    1.1,    1.1,  999.0,    0.9,  999.0,    0.9,    0.8,    0.8,  999.0,  999.0,    0.7,    0.6,    0.8,    0.7,  999.0,  999.0,  999.0,  999.0,    1.1,  999.0,  999.0,  999.0,  999.0,  999.0,  999.0,  999.0
2002/07/25 07:40,  999.0,    0.3,    0.7,    0.6,    0.3,   -0.3,   -0.3,   -0.1,    0.3,   -0.0,   -0.1,   -0.1,   -0.1,    0.1,    0.1,    0.1,    0.1,    0.2,    0.3,    0.4,    0.5,    0.5,    0.3,    0.5,    0.5,    0.4,    0.4,    0.4,    0.4,    0.5,    0.6,    0.6,  999.0,  999.0,  999.0,    0.8,  999.0,  999.0,    1.0,  999.0,    0.7,  999.0,  999.0,  999.0,  999.0,  999.0,  999.0,    0.8,    0.8,    1.1,    0.9,  999.0,  999.0,  999.0,  999.0,  999.0,  999.0,  999.0,  999.0,  999.0,  999.0,  999.0,  999.0
2002/07/25 07:50,  999.0,   -0.0,    0.1,    0.0,   -0.4,    0.3,    0.8,    0.9,    0.7,    0.6,    0.6,    0.5,    0.4,    0.3,    0.3,    0.3,    0.3,    0.2,    0.2,    0.1,    0.2,    0.2,    0.1,    0.2,    0.2,   -0.0,   -0.0,    0.0,   -0.1,   -0.0,    0.1,    0.2,    0.3,    0.8,    0.9,    0.8,  999.0,    0.9,    0.9,  999.0,    1.0,    1.0,  999.0,  999.0,  999.0,  999.0,  999.0,    0.9,    0.9,  999.0,    0.9,  999.0,  999.0,    0.9,  999.0,  999.0,  999.0,  999.0,  999.0,  999.0,  999.0,    0.6,  999.0
2002/07/25 08:00,  999.0,   -0.1,   -0.6,   -0.8,   -0.6,   -0.6,    0.4,   -0.1,    0.3,    0.3,    0.3,    0.2,    0.2,    0.4,    0.4,    0.4,    0.3,    0.4,    0.3,    0.4,    0.6,    0.5,    0.5,    0.5,    0.4,    0.3,    0.3,    0.2,    0.3,    0.2,    0.3,    0.3,    0.3,    0.6,    0.7,    0.7,    0.8,    0.9,    1.0,  999.0,    0.9,    0.9,  999.0,  999.0,  999.0,  999.0,    1.0,    0.8,  999.0,    1.0,  999.0,  999.0,  999.0,    1.1,  999.0,  999.0,  999.0,  999.0,  999.0,  999.0,  999.0,  999.0,  999.0
2002/07/25 08:10,  999.0,   -0.2,   -0.2,   -0.2,   -0.4,    0.3,    0.7,    0.7,    0.7,    0.5,    0.3,    0.2,    0.2,    0.2,    0.3,    0.2,    0.4,    0.4,    0.5,    0.5,    0.5,    0.5,    0.5,    0.5,    0.5,    0.7,    0.6,  999.0,    0.7,    0.6,    0.6,    0.6,    0.7,    0.7,    0.8,    0.9,    0.9,    1.0,    0.9,  999.0,  999.0,    0.8,    0.6,  999.0,  999.0,  999.0,  999.0,  999.0,  999.0,    0.9,  999.0,    0.6,  999.0,  999.0,  999.0,  999.0,  999.0,  999.0,  999.0,  999.0,  999.0,  999.0,  999.0
2002/07/25 08:20,  999.0,    0.0,    0.1,    0.1,   -0.3,   -0.0,    0.4,    0.6,    0.6,    0.7,    0.6,    0.5,    0.5,    0.5,    0.6,    0.4,    0.7,    0.6,    0.8,    0.6,    0.8,    0.7,    0.7,    0.6,    0.8,    0.7,    0.8,  999.0,    0.6,    0.7,    0.6,    0.6,    0.7,    0.7,    0.9,    0.8,    0.9,    1.0,  999.0,    0.9,    0.8,    0.7,    0.7,  999.0,  999.0,  999.0,  999.0,  999.0,    0.5,  999.0,  999.0,  999.0,  999.0,  999.0,  999.0,  999.0,  999.0,  999.0,  999.0,  999.0,  999.0,  999.0,  999.0
2002/07/25 08:30,  999.0,    0.1,    0.2,    0.2,    0.0,    0.3,    0.4,    0.3,    0.7,    0.6,    0.6,    0.8,    0.6,    0.6,    0.6,    0.3,    0.5,    0.5,    0.5,    0.7,    0.7,    0.8,    0.7,    0.7,    0.6,    0.7,    0.8,    0.6,  999.0,    0.7,    0.6,    0.6,    0.7,    0.7,    0.7,    0.7,    0.7,    0.6,  999.0,  999.0,    0.7,    0.8,    0.7,  999.0,    0.6,  999.0,  999.0,  999.0,    0.8,  999.0,  999.0,  999.0,  999.0,  999.0,  999.0,  999.0,  999.0,  999.0,  999.0,  999.0,  999.0,  999.0,  999.0
2002/07/25 08:40,  999.0,   -0.2,   -0.3,   -0.0,   -0.3,   -0.1,    0.2,    0.4,    0.5,    0.5,    0.5,    0.4,    0.5,    0.5,    0.4,    0.3,    0.3,    0.4,    0.5,    0.6,    0.8,    0.7,    0.6,    0.8,    0.8,    0.9,    0.7,    0.8,    0.6,    0.6,    0.7,    0.6,    0.6,    0.5,    0.6,    0.7,    0.7,    0.7,  999.0,  999.0,    0.6,    0.6,    0.5,    0.7,  999.0,    0.9,  999.0,    0.8,    0.9,  999.0,  999.0,  999.0,  999.0,  999.0,  999.0,  999.0,  999.0,  999.0,  999.0,  999.0,  999.0,  999.0,  999.0
2002/07/25 08:50,  999.0,   -0.1,    0.0,   -0.1,    0.1,   -0.2,   -0.2,    0.2,    0.4,    0.4,    0.3,    0.4,    0.3,    0.2,    0.2,    0.1,    0.2,    0.4,    0.4,    0.5,    0.5,    0.4,    0.5,    0.7,    0.9,    0.9,    0.8,    0.9,    0.8,    0.8,    0.8,    0.7,    0.6,    0.6,    0.7,    0.8,  999.0,  999.0,  999.0,  999.0,    0.8,  999.0,    0.7,    0.8,    0.7,  999.0,    0.8,    0.9,  999.0,  999.0,  999.0,  999.0,  999.0,  999.0,  999.0,  999.0,  999.0,  999.0,  999.0,  999.0,  999.0,  999.0,  999.0
2002/07/25 09:00,  999.0,   -0.1,    0.3,    0.1,    0.2,   -0.0,   -0.0,    0.2,    0.4,    0.2,    0.3,    0.4,    0.3,    0.3,    0.1,    0.1,    0.1,    0.4,    0.4,    0.4,    0.5,    0.5,    0.5,    0.7,    0.8,    0.7,    0.7,    0.7,    0.9,    0.4,    0.4,    0.3,    0.2,    0.3,    0.2,    0.1,  999.0,  999.0,  999.0,  999.0,    0.3,  999.0,    0.2,    0.2,    0.3,    0.3,    0.4,  999.0,  999.0,  999.0,  999.0,  999.0,  999.0,  999.0,  999.0,  999.0,  999.0,  999.0,  999.0,  999.0,  999.0,  999.0,  999.0
2002/07/25 09:10,  999.0,    0.3,    0.2,   -0.2,   -0.0,    0.2,    0.5,    0.2,    0.2,    0.3,    0.3,    0.2,    0.2,    0.1,   -0.0,    0.0,    0.0,    0.1,    0.1,    0.2,    0.4,    0.4,    0.3,    0.7,    0.7,    0.6,    0.5,    0.5,    0.3,    0.2,    0.1,   -0.1,   -0.2,   -0.2,   -0.3,   -0.3,  999.0,  999.0,  999.0,  999.0,    0.1,  999.0,  999.0,   -0.1,   -0.0,  999.0,    0.4,    0.3,  999.0,  999.0,  999.0,  999.0,  999.0,  999.0,  999.0,  999.0,  999.0,  999.0,  999.0,  999.0,  999.0,  999.0,  999.0
2002/07/25 09:20,  999.0,    0.0,   -0.3,   -0.0,   -0.2,    0.1,    0.1,    0.1,    0.3,    0.4,    0.6,    0.6,    0.6,    0.6,    0.5,    0.3,    0.2,    0.2,    0.2,    0.2,    0.3,    0.3,    0.5,    0.6,    0.5,    0.4,    0.3,    0.2,    0.1,    0.1,    0.0,   -0.1,   -0.1,   -0.3,   -0.3,   -0.3,   -0.3,   -0.1,    0.1,  999.0,  999.0,    0.1,    0.1,    0.2,    0.5,    0.4,    0.5,  999.0,  999.0,  999.0,  999.0,  999.0,  999.0,  999.0,  999.0,  999.0,  999.0,  999.0,  999.0,  999.0,  999.0,  999.0,  999.0
2002/07/25 09:30,  999.0,   -0.1,   -0.1,    0.0,   -0.0,   -0.4,   -0.2,    0.0,   -0.3,   -0.0,    0.1,    0.1,    0.1,    0.2,    0.0,    0.0,   -0.0,   -0.0,    0.1,    0.1,    0.3,    0.2,    0.5,    0.5,    0.5,    0.4,    0.3,    0.4,    0.3,    0.3,    0.4,    0.3,    0.2,  999.0,    0.5,    0.5,    0.5,    0.5,    0.5,  999.0,  999.0,    0.5,    0.5,    0.5,    0.7,    0.7,    0.7,    1.0,  999.0,    1.0,  999.0,  999.0,  999.0,  999.0,  999.0,  999.0,  999.0,  999.0,  999.0,  999.0,  999.0,  999.0,  999.0
2002/07/25 09:40,  999.0,   -0.0,    0.1,    0.1,   -0.6,   -0.4,   -0.3,   -0.4,   -0.1,   -0.2,   -0.1,   -0.1,   -0.1,   -0.1,   -0.2,   -0.1,   -0.1,   -0.2,    0.0,   -0.0,    0.1,    0.2,    0.3,    0.5,    0.5,    0.6,    0.7,    0.7,    0.8,    0.7,    0.8,    0.8,    0.9,    1.1,    1.1,    0.9,    0.9,    1.0,    1.1,  999.0,    0.6,    0.4,    1.0,    1.0,    1.0,    1.0,    1.0,    1.1,    1.0,    1.1,  999.0,  999.0,  999.0,  999.0,  999.0,  999.0,  999.0,  999.0,  999.0,  999.0,  999.0,  999.0,  999.0
2002/07/25 09:50,  999.0,   -0.0,   -0.1,   -0.1,   -0.5,   -0.5,   -0.3,   -0.4,   -0.3,   -0.1,    0.0,    0.1,    0.1,   -0.0,   -0.2,   -0.1,    0.0,   -0.0,    0.0,    0.1,    0.3,    0.6,    0.8,    0.9,    1.0,    1.2,    1.5,    1.5,    1.5,    1.5,    1.5,    1.4,    1.4,    1.4,    1.4,    1.2,    1.3,    1.3,    1.3,    1.2,  999.0,    1.2,    1.3,  999.0,  999.0,    1.2,  999.0,  999.0,  999.0,  999.0,  999.0,  999.0,  999.0,  999.0,  999.0,  999.0,  999.0,  999.0,  999.0,  999.0,  999.0,  999.0,  999.0
2002/07/25 10:00,  999.0,   -0.2,   -0.4,   -0.4,   -0.5,   -0.6,   -0.3,   -0.1,   -0.3,   -0.3,   -0.4,   -0.5,   -0.4,   -0.3,   -0.3,   -0.1,   -0.0,    0.0,   -0.1,    0.0,    0.0,    0.2,    0.3,    0.4,    0.5,    0.6,    0.7,    0.9,    0.9,    1.0,    1.0,    1.2,    1.2,    1.2,    1.2,    1.2,    1.1,    1.1,    1.1,    0.9,  999.0,    1.0,    1.1,    0.9,    0.9,  999.0,  999.0,  999.0,  999.0,  999.0,  999.0,  999.0,  999.0,  999.0,  999.0,  999.0,  999.0,  999.0,  999.0,  999.0,  999.0,  999.0,  999.0
2002/07/25 10:10,  999.0,   -0.1,   -0.4,   -0.7,   -0.7,   -0.4,   -0.5,   -0.3,   -0.3,   -0.3,   -0.1,   -0.1,   -0.1,   -0.1,   -0.1,   -0.2,    0.1,    0.0,    0.1,    0.2,    0.4,    0.5,    0.3,    0.8,    0.7,    0.9,    1.0,    1.0,    1.0,    1.1,    1.1,    1.1,    1.1,    1.2,    1.2,    1.0,    0.9,    0.9,    0.8,    0.8,    0.8,  999.0,    0.5,    0.6,    0.7,  999.0,    0.6,    0.9,  999.0,  999.0,  999.0,  999.0,  999.0,  999.0,    0.5,  999.0,  999.0,  999.0,  999.0,  999.0,  999.0,  999.0,  999.0
2002/07/25 10:20,  999.0,   -0.1,   -0.3,   -0.1,    0.0,    0.2,    0.3,    0.2,    0.2,    0.1,    0.1,   -0.0,   -0.1,   -0.1,    0.1,    0.1,    0.1,   -0.0,    0.0,    0.1,    0.2,    0.2,    0.1,  999.0,    0.5,    0.8,    0.8,    0.8,    0.8,    0.8,    0.8,    0.9,    0.9,    1.1,    1.2,    1.1,    1.2,    1.0,    1.1,    1.1,    1.0,    0.9,    0.8,    0.7,    0.6,    0.5,  999.0,    0.6,  999.0,  999.0,  999.0,  999.0,  999.0,  999.0,  999.0,  999.0,  999.0,  999.0,  999.0,  999.0,  999.0,  999.0,  999.0
2002/07/25 10:30,  999.0,    0.0,   -0.2,   -0.1,   -0.0,   -0.0,   -0.1,   -0.1,   -0.3,   -0.4,   -0.4,   -0.2,   -0.2,    0.1,    0.0,    0.1,    0.1,    0.3,    0.1,    0.0,    0.2,    0.3,    0.3,    0.5,    0.6,    0.7,    0.9,    1.0,    0.9,    1.2,    1.0,    1.0,    1.0,    1.1,    1.2,    1.1,    1.5,  999.0,    1.3,    1.1,    1.0,    1.0,    1.1,    1.0,    0.8,    0.9,  999.0,    0.9,  999.0,    0.8,  999.0,  999.0,  999.0,  999.0,  999.0,  999.0,  999.0,  999.0,  999.0,  999.0,  999.0,  999.0,  999.0
2002/07/25 10:40,  999.0,   -0.5,    0.1,    0.2,    0.2,    0.4,    0.4,    0.3,    0.4,    0.3,    0.4,    0.4,    0.4,    0.3,    0.2,    0.3,    0.1,    0.4,    0.3,    0.1,    0.4,    0.4,    0.6,  999.0,    0.5,    0.6,    0.6,    0.6,    0.6,    0.9,    0.6,    0.6,    0.8,    0.8,    0.8,    0.9,  999.0,    0.7,    0.8,    0.9,    1.0,    1.0,    0.8,    0.8,    0.9,    0.7,    0.7,    0.7,    0.7,    0.7,  999.0,  999.0,  999.0,  999.0,  999.0,  999.0,  999.0,  999.0,  999.0,  999.0,  999.0,  999.0,  999.0
2002/07/25 10:50,  999.0,   -0.0,    0.2,    0.1,   -0.1,    0.3,   -0.1,   -0.0,   -0.2,    0.2,    0.3,    0.1,    0.1,    0.2,    0.2,    0.0,    0.2,    0.1,    0.1,    0.0,    0.1,    0.1,    0.4,    0.5,    0.4,    0.7,    0.8,    1.0,    1.0,    1.0,    1.1,    0.9,    1.1,    1.2,    1.2,    1.2,    1.1,    1.1,    1.1,  999.0,  999.0,    0.9,    1.0,    1.0,    1.0,  999.0,    1.1,  999.0,  999.0,    0.9,  999.0,    1.0,    0.8,  999.0,  999.0,  999.0,  999.0,  999.0,  999.0,  999.0,  999.0,  999.0,  999.0
2002/07/25 11:00,  999.0,   -0.0,   -0.1,   -0.2,   -0.2,    0.2,    0.3,    0.4,    0.3,    0.4,    0.4,    0.5,    0.5,    0.4,    0.4,    0.2,    0.2,    0.4,    0.1,    0.1,    0.6,    0.5,    0.6,    0.1,    0.8,    0.9,    0.9,    0.9,    0.9,    1.0,    1.0,    1.0,  999.0,    1.1,    1.1,    1.3,    1.3,    1.3,  999.0,  999.0,  999.0,    1.1,    1.1,  999.0,    0.9,    0.9,  999.0,    0.8,  999.0,  999.0,  999.0,  999.0,  999.0,  999.0,  999.0,  999.0,  999.0,  999.0,  999.0,  999.0,  999.0,  999.0,  999.0
2002/07/25 11:10,  999.0,   -0.1,   -0.1,   -0.3,   -0.5,   -0.6,   -0.8,   -0.4,   -0.1,   -0.2,   -0.1,   -0.1,    0.0,    0.1,    0.2,    0.3,    0.3,    0.4,    0.2,    0.1,    0.2,    0.4,    0.4,    0.5,    0.4,    0.5,    0.5,    0.6,    0.7,    0.7,    0.9,    1.0,  999.0,    1.2,    1.3,    1.4,    1.6,    1.6,    1.3,    1.2,    1.1,    0.9,    0.9,    0.9,    0.9,    0.9,    0.9,    1.1,  999.0,  999.0,  999.0,  999.0,  999.0,  999.0,  999.0,  999.0,  999.0,  999.0,  999.0,  999.0,  999.0,  999.0,  999.0
2002/07/25 11:20,  999.0,   -0.1,   -0.3,   -0.4,   -0.5,   -0.7,   -0.3,   -0.1,   -0.1,   -0.1,   -0.2,   -0.2,   -0.3,   -0.2,   -0.2,   -0.1,   -0.0,    0.1,    0.0,   -0.0,    0.0,    0.1,    0.2,    0.3,    0.3,    0.4,    0.4,    0.5,    0.7,    0.8,    1.1,    1.2,  999.0,    1.3,    1.5,    1.6,    1.7,    1.6,    1.5,    1.2,    1.2,    1.2,    1.1,    1.0,    0.9,    0.9,    1.0,  999.0,  999.0,  999.0,  999.0,    0.7,  999.0,  999.0,  999.0,  999.0,  999.0,  999.0,  999.0,  999.0,  999.0,  999.0,  999.0
2002/07/25 11:30,  999.0,   -0.3,   -0.3,   -0.3,   -0.5,   -0.3,   -0.1,   -0.1,   -0.0,   -0.1,   -0.2,   -0.2,   -0.1,   -0.1,    0.1,    0.1,    0.2,    0.2,    0.2,    0.1,    0.1,    0.0,    0.3,    0.4,    0.5,    0.7,    0.4,    0.5,    0.6,    0.6,    0.8,    0.9,    0.9,    0.8,    0.9,    1.0,    1.0,    0.9,    0.7,    0.8,    0.8,    0.8,  999.0,    0.8,    0.8,  999.0,  999.0,  999.0,  999.0,  999.0,  999.0,  999.0,  999.0,  999.0,  999.0,  999.0,  999.0,  999.0,  999.0,  999.0,  999.0,  999.0,  999.0
2002/07/25 11:40,  999.0,   -0.2,   -0.3,   -0.4,   -0.6,   -0.6,   -0.2,   -0.2,   -0.1,   -0.0,   -0.1,   -0.0,    0.1,    0.2,    0.3,    0.3,    0.1,    0.1,    0.1,    0.2,    0.0,    0.0,    0.1,    0.4,    0.4,    0.4,    0.7,    0.5,    0.6,    0.7,    0.7,    0.8,    0.9,    0.9,    0.9,    0.9,    0.8,    0.8,    0.7,    0.6,    0.6,  999.0,  999.0,  999.0,    0.5,  999.0,  999.0,  999.0,  999.0,  999.0,  999.0,  999.0,  999.0,  999.0,  999.0,  999.0,  999.0,  999.0,  999.0,  999.0,  999.0,    0.7,  999.0
2002/07/25 11:50,  999.0,   -0.1,   -0.2,   -0.2,   -0.5,   -0.5,   -0.3,   -0.2,   -0.2,   -0.2,   -0.2,   -0.1,   -0.2,   -0.1,    0.1,    0.1,    0.2,    0.2,   -0.0,    0.2,    0.3,    0.0,    0.2,    0.4,    0.3,    0.4,    0.5,    0.2,    0.6,    0.6,    0.8,    0.8,    0.8,    0.7,    0.9,    0.8,    0.8,    0.7,    0.6,    0.4,    0.3,    0.2,  999.0,  999.0,  999.0,  999.0,  999.0,  999.0,  999.0,  999.0,  999.0,  999.0,  999.0,  999.0,  999.0,  999.0,  999.0,  999.0,  999.0,  999.0,  999.0,  999.0,  999.0
2002/07/25 12:00,  999.0,   -0.2,   -0.2,   -0.4,   -0.4,   -0.3,   -0.3,   -0.1,   -0.2,   -0.3,   -0.4,   -0.3,   -0.3,   -0.1,   -0.0,    0.1,    0.1,    0.0,    0.1,    0.3,    0.2,   -0.1,    0.3,    0.2,    0.2,  999.0,  999.0,    0.2,    0.4,    0.8,    0.7,    0.8,    0.9,    0.9,    0.9,    0.9,    0.9,    0.6,    0.6,    0.5,    0.4,  999.0,  999.0,  999.0,  999.0,  999.0,  999.0,  999.0,  999.0,  999.0,  999.0,  999.0,  999.0,  999.0,  999.0,  999.0,  999.0,  999.0,  999.0,  999.0,  999.0,  999.0,  999.0
2002/07/25 12:10,  999.0,   -0.1,   -0.3,   -0.4,   -0.5,   -0.4,   -0.2,   -0.3,   -0.3,   -0.3,   -0.2,   -0.2,   -0.0,    0.0,    0.1,    0.1,    0.1,    0.1,    0.0,    0.1,    0.1,    0.2,    0.3,    0.5,    0.4,    0.4,  999.0,    0.1,    0.5,    0.6,  999.0,    0.4,    0.7,    0.7,    0.5,    0.5,    0.5,    0.6,    0.3,    0.2,    0.3,  999.0,  999.0,  999.0,  999.0,  999.0,  999.0,  999.0,  999.0,  999.0,  999.0,  999.0,  999.0,  999.0,  999.0,  999.0,  999.0,  999.0,  999.0,  999.0,  999.0,  999.0,  999.0
2002/07/25 12:20,  999.0,   -0.2,   -0.2,   -0.1,   -0.4,   -0.9,   -0.8,   -0.3,   -0.1,   -0.1,   -0.1,   -0.2,   -0.2,   -0.1,   -0.2,    0.1,    0.1,    0.1,   -0.0,   -0.0,   -0.0,    0.3,    0.2,    0.3,    0.4,  999.0,    0.4,    0.5,    0.6,  999.0,  999.0,    0.8,    0.9,    0.9,    1.0,    0.8,    0.9,    1.0,    0.8,    0.7,  999.0,  999.0,  999.0,  999.0,  999.0,  999.0,  999.0,  999.0,  999.0,  999.0,  999.0,  999.0,  999.0,  999.0,  999.0,  999.0,  999.0,  999.0,  999.0,  999.0,  999.0,  999.0,  999.0
2002/07/25 12:30,  999.0,   -0.2,   -0.2,   -0.0,    0.0,    0.1,   -0.2,   -0.1,    0.2,    0.0,    0.1,    0.1,   -0.0,   -0.1,   -0.1,   -0.1,   -0.1,   -0.0,   -0.0,    0.0,    0.0,    0.0,   -0.0,    0.0,    0.1,    0.2,   -0.1,    0.2,    0.5,    0.5,    0.6,   -0.1,    0.8,    0.7,    0.9,    0.8,    0.8,    0.8,  999.0,  999.0,    0.9,  999.0,  999.0,  999.0,  999.0,  999.0,  999.0,  999.0,  999.0,  999.0,  999.0,  999.0,  999.0,  999.0,  999.0,  999.0,  999.0,  999.0,  999.0,  999.0,  999.0,  999.0,  999.0
2002/07/25 12:40,  999.0,   -0.0,    0.0,   -0.4,   -0.6,   -0.4,   -0.1,   -0.1,   -0.3,   -0.3,   -0.3,   -0.3,   -0.4,   -0.4,   -0.2,   -0.1,   -0.2,   -0.1,   -0.1,   -0.1,   -0.1,   -0.3,   -0.0,   -0.0,   -0.1,    0.2,  999.0,    0.3,    0.4,    0.4,  999.0,    0.4,    0.6,    0.6,    0.6,  999.0,  999.0,    0.7,  999.0,  999.0,  999.0,  999.0,  999.0,  999.0,  999.0,  999.0,  999.0,  999.0,  999.0,  999.0,  999.0,  999.0,  999.0,  999.0,  999.0,  999.0,  999.0,  999.0,  999.0,  999.0,  999.0,  999.0,  999.0
2002/07/25 12:50,  999.0,    0.0,   -0.4,   -0.7,   -0.7,   -0.7,   -0.7,   -0.2,   -0.2,   -0.4,   -0.3,   -0.4,   -0.5,   -0.4,   -0.2,   -0.2,   -0.3,   -0.3,   -0.0,   -0.1,   -0.4,   -0.3,   -0.2,   -0.4,   -0.2,   -0.2,  999.0,    0.1,    0.1,    0.2,    0.2,    0.1,    0.5,    0.6,    0.6,  999.0,  999.0,  999.0,  999.0,  999.0,  999.0,  999.0,  999.0,  999.0,  999.0,  999.0,  999.0,  999.0,  999.0,  999.0,  999.0,  999.0,  999.0,  999.0,  999.0,  999.0,  999.0,  999.0,  999.0,  999.0,    0.9,  999.0,  999.0
2002/07/25 13:00,  999.0,    0.1,   -0.1,   -0.6,   -0.5,   -0.6,   -1.2,   -0.8,   -0.8,   -0.6,   -0.3,   -0.2,   -0.3,   -0.4,   -0.2,   -0.2,   -0.1,   -0.2,   -0.0,   -0.1,   -0.1,   -0.0,    0.1,    0.1,    0.2,    0.4,  999.0,    0.5,    0.5,    0.6,  999.0,    1.2,    1.5,    1.1,  999.0,  999.0,  999.0,  999.0,  999.0,    2.4,  999.0,  999.0,  999.0,    1.5,  999.0,  999.0,  999.0,  999.0,  999.0,  999.0,  999.0,  999.0,  999.0,  999.0,  999.0,  999.0,  999.0,  999.0,    0.6,  999.0,  999.0,  999.0,  999.0
2002/07/25 13:10,  999.0,    0.1,   -0.2,   -0.5,   -0.9,   -1.3,   -1.5,   -0.8,   -1.2,   -1.1,   -1.1,   -1.1,   -1.0,   -0.9,   -0.6,   -0.2,   -0.2,   -0.3,   -0.1,   -0.1,   -0.2,   -0.2,   -0.2,   -0.0,    0.1,    0.2,    0.4,    0.5,    0.5,    0.4,  999.0,    0.1,    0.6,    1.0,  999.0,    1.0,  999.0,  999.0,  999.0,  999.0,  999.0,  999.0,    1.1,    1.4,  999.0,  999.0,  999.0,  999.0,  999.0,  999.0,  999.0,  999.0,  999.0,  999.0,  999.0,  999.0,  999.0,  999.0,  999.0,  999.0,  999.0,  999.0,  999.0
2002/07/25 13:20,  999.0,   -0.0,   -0.3,   -0.3,   -0.4,   -0.3,   -0.4,   -1.1,   -0.5,   -0.6,   -0.5,   -0.6,   -0.8,   -0.8,   -0.6,   -0.4,   -0.1,   -0.3,   -0.1,   -0.0,   -0.2,   -0.1,   -0.1,    0.1,    0.1,    0.2,    0.4,    0.5,    0.6,    0.7,   -0.0,    0.1,  999.0,  999.0,  999.0,    1.2,    1.3,    0.6,  999.0,  999.0,  999.0,    0.9,    1.1,  999.0,  999.0,  999.0,  999.0,  999.0,  999.0,  999.0,  999.0,  999.0,  999.0,  999.0,  999.0,  999.0,  999.0,  999.0,  999.0,  999.0,  999.0,  999.0,  999.0
2002/07/25 13:30,  999.0,   -0.0,   -0.0,   -0.3,   -0.4,   -0.7,   -0.6,   -1.0,   -0.5,   -0.5,   -0.6,   -0.8,   -0.6,   -0.5,   -0.4,   -0.5,   -0.5,   -0.4,   -0.4,   -0.1,   -0.4,   -0.2,   -0.1,  999.0,    0.1,    0.0,    0.2,    0.3,    0.6,  999.0,  999.0,    0.2,    0.7,  999.0,    1.3,  999.0,    1.1,  999.0,  999.0,    0.6,    0.8,    1.0,  999.0,  999.0,  999.0,  999.0,  999.0,  999.0,  999.0,  999.0,  999.0,  999.0,  999.0,  999.0,  999.0,  999.0,  999.0,  999.0,  999.0,  999.0,  999.0,  999.0,  999.0
2002/07/25 13:40,  999.0,    0.0,    0.5,    0.5,   -0.3,   -0.4,   -0.6,   -0.6,   -1.1,   -0.8,   -0.7,   -0.6,   -0.8,   -0.8,   -0.6,   -0.5,   -0.5,   -0.5,   -0.4,   -0.3,   -0.6,   -0.4,   -0.4,   -0.3,   -0.3,   -0.1,   -0.0,    0.1,  999.0,  999.0,    0.3,    0.1,  999.0,  999.0,    0.9,    1.3,  999.0,  999.0,  999.0,    1.0,    1.0,    1.3,  999.0,  999.0,  999.0,  999.0,  999.0,  999.0,  999.0,  999.0,  999.0,  999.0,  999.0,  999.0,  999.0,  999.0,  999.0,  999.0,  999.0,  999.0,  999.0,  999.0,  999.0
2002/07/25 13:50,  999.0,    0.0,    0.3,    0.1,    0.1,   -0.2,   -0.6,   -0.9,   -1.1,   -0.7,   -0.8,   -0.7,   -0.7,   -0.5,   -0.4,   -0.5,   -0.5,   -0.5,   -0.2,   -0.3,   -0.4,   -0.3,   -0.3,   -0.2,   -0.2,   -0.1,   -0.0,    0.2,  999.0,  999.0,    0.1,  999.0,  999.0,  999.0,  999.0,  999.0,  999.0,  999.0,  999.0,  999.0,    1.0,    1.3,  999.0,  999.0,  999.0,  999.0,  999.0,  999.0,  999.0,  999.0,  999.0,  999.0,  999.0,  999.0,  999.0,  999.0,  999.0,  999.0,  999.0,  999.0,  999.0,  999.0,  999.0
2002/07/25 14:00,  999.0,   -0.0,   -0.1,   -0.1,   -0.4,   -0.3,   -0.8,   -0.4,   -0.1,   -0.3,   -0.4,   -0.4,   -0.5,   -0.5,   -0.6,   -0.5,   -0.4,   -0.4,   -0.3,   -0.2,   -0.2,   -0.1,   -0.0,    0.1,   -0.1,   -0.1,   -0.0,    0.1,    0.2,  999.0,    0.0,   -0.0,  999.0,  999.0,  999.0,  999.0,  999.0,  999.0,  999.0,    1.0,    1.4,  999.0,  999.0,  999.0,  999.0,  999.0,  999.0,  999.0,  999.0,  999.0,  999.0,  999.0,  999.0,  999.0,  999.0,  999.0,  999.0,  999.0,  999.0,  999.0,  999.0,  999.0,  999.0
2002/07/25 14:10,  999.0,   -0.0,   -0.0,   -0.2,   -0.2,   -0.4,   -0.1,   -0.2,   -0.2,   -0.5,   -0.6,   -0.4,   -0.3,   -0.3,   -0.3,   -0.2,   -0.2,   -0.2,   -0.1,   -0.1,   -0.3,   -0.3,   -0.1,   -0.2,   -0.2,   -0.2,    0.1,    0.2,  999.0,  999.0,  999.0,    0.1,  999.0,  999.0,  999.0,  999.0,  999.0,  999.0,  999.0,  999.0,  999.0,  999.0,  999.0,  999.0,  999.0,  999.0,  999.0,  999.0,  999.0,  999.0,  999.0,  999.0,  999.0,  999.0,  999.0,  999.0,  999.0,  999.0,  999.0,  999.0,  999.0,  999.0,  999.0
2002/07/25 14:20,  999.0,   -0.2,   -0.3,   -0.6,   -0.9,   -0.6,   -0.7,   -0.6,   -0.6,   -0.4,   -0.3,   -0.5,   -0.5,   -0.4,   -0.3,   -0.3,   -0.3,   -0.2,   -0.1,   -0.1,   -0.1,    0.0,    0.1,    0.2,    0.1,    0.1,    0.3,    0.3,    0.3,  999.0,  999.0,    0.1,  999.0,  999.0,  999.0,  999.0,  999.0,  999.0,  999.0,    0.2,  999.0,  999.0,  999.0,    0.0,    0.1,   -0.0,  999.0,  999.0,  999.0,  999.0,  999.0,  999.0,  999.0,  999.0,  999.0,  999.0,  999.0,   -0.0,  999.0,  999.0,  999.0,  999.0,  999.0
2002/07/25 14:30,  999.0,   -0.1,   -0.1,   -0.3,   -0.5,   -0.6,   -0.9,   -0.7,   -0.6,   -0.8,   -0.9,   -1.0,   -1.1,   -0.9,   -0.7,   -0.6,   -0.4,   -0.4,   -0.2,   -0.2,   -0.2,   -0.0,   -0.0,   -0.0,    0.0,    0.1,    0.2,    0.4,    0.6,  999.0,  999.0,  999.0,  999.0,  999.0,  999.0,  999.0,  999.0,  999.0,  999.0,  999.0,  999.0,  999.0,  999.0,  999.0,  999.0,  999.0,  999.0,  999.0,  999.0,  999.0,  999.0,  999.0,  999.0,  999.0,  999.0,  999.0,  999.0,  999.0,  999.0,  999.0,  999.0,  999.0,  999.0
2002/07/25 14:40,  999.0,   -0.1,   -0.4,   -0.3,   -0.7,   -0.8,   -0.7,   -0.7,   -0.8,   -0.8,   -0.9,   -1.1,   -1.3,   -1.2,   -0.8,   -0.7,   -0.6,   -0.7,   -0.1,   -0.3,   -0.5,   -0.4,   -0.4,   -0.3,   -0.3,   -0.1,    0.2,    0.3,    0.4,  999.0,  999.0,    0.2,  999.0,  999.0,    1.0,  999.0,  999.0,  999.0,  999.0,  999.0,  999.0,  999.0,  999.0,  999.0,  999.0,  999.0,  999.0,  999.0,  999.0,  999.0,  999.0,  999.0,  999.0,  999.0,  999.0,  999.0,  999.0,  999.0,  999.0,  999.0,  999.0,  999.0,  999.0
2002/07/25 14:50,  999.0,   -0.6,   -0.6,   -0.7,   -1.7,   -1.3,   -1.2,   -1.2,   -1.1,   -0.9,   -0.9,   -0.9,   -0.7,   -0.6,   -0.7,   -0.6,   -0.5,   -0.6,   -0.3,   -0.2,   -0.3,   -0.3,   -0.1,   -0.5,   -0.0,    0.3,    0.4,    0.6,    0.7,    0.8,    0.8,    0.7,  999.0,    0.9,    1.3,  999.0,  999.0,  999.0,  999.0,  999.0,  999.0,  999.0,  999.0,  999.0,  999.0,  999.0,  999.0,  999.0,  999.0,  999.0,  999.0,  999.0,  999.0,  999.0,  999.0,  999.0,  999.0,  999.0,  999.0,  999.0,  999.0,  999.0,  999.0
2002/07/25 15:00,  999.0,   -0.0,   -0.1,   -0.0,   -0.2,   -0.2,   -0.2,   -0.4,   -0.4,   -0.4,   -0.2,   -0.0,   -0.1,   -0.1,   -0.1,   -0.1,   -0.1,   -0.1,   -0.0,   -0.0,   -0.1,   -0.1,   -0.1,  999.0,  999.0,    0.5,    0.6,    0.8,    0.8,    1.1,    1.2,    1.1,  999.0,    1.1,    1.2,  999.0,  999.0,  999.0,  999.0,  999.0,  999.0,  999.0,  999.0,  999.0,  999.0,  999.0,  999.0,  999.0,  999.0,  999.0,  999.0,  999.0,  999.0,  999.0,  999.0,  999.0,  999.0,  999.0,  999.0,  999.0,  999.0,  999.0,  999.0
2002/07/25 15:10,  999.0,   -0.2,   -0.3,    0.0,   -0.1,   -0.4,   -0.3,   -0.3,   -0.2,   -0.0,    0.0,    0.0,    0.2,    0.2,    0.2,    0.2,    0.0,    0.3,    0.2,    0.1,    0.4,    0.1,    0.1,    0.4,    0.5,    0.6,    0.9,    1.0,    1.1,    1.0,    1.4,    1.2,  999.0,    1.4,    1.5,    1.5,    2.1,  999.0,  999.0,  999.0,  999.0,  999.0,  999.0,  999.0,  999.0,  999.0,  999.0,  999.0,  999.0,  999.0,  999.0,  999.0,  999.0,  999.0,  999.0,  999.0,  999.0,  999.0,  999.0,  999.0,  999.0,  999.0,  999.0
2002/07/25 15:20,  999.0,   -0.0,    0.1,    0.1,    0.1,    0.1,    0.1,    0.1,    0.1,    0.1,   -0.1,   -0.2,   -0.1,    0.0,   -0.1,    0.1,    0.1,    0.1,    0.0,   -0.0,    0.0,    0.4,    0.0,    0.2,    0.3,  999.0,  999.0,    0.4,    0.8,    0.9,    1.2,    1.3,  999.0,    1.4,    1.4,    1.7,  999.0,  999.0,  999.0,  999.0,  999.0,  999.0,  999.0,  999.0,  999.0,  999.0,  999.0,  999.0,  999.0,  999.0,  999.0,  999.0,  999.0,  999.0,  999.0,  999.0,  999.0,  999.0,  999.0,  999.0,  999.0,  999.0,  999.0
2002/07/25 15:30,  999.0,   -0.1,   -0.2,   -0.2,   -0.5,   -0.3,   -0.3,   -0.2,   -0.1,   -0.1,   -0.1,   -0.1,   -0.2,   -0.2,   -0.2,   -0.1,   -0.3,   -0.1,   -0.0,    0.0,    0.3,    0.0,    0.0,  999.0,    0.5,  999.0,  999.0,    1.2,    1.4,    1.3,    1.5,    1.7,  999.0,    1.5,    1.7,  999.0,  999.0,  999.0,  999.0,  999.0,  999.0,  999.0,  999.0,  999.0,  999.0,  999.0,  999.0,  999.0,  999.0,  999.0,  999.0,  999.0,  999.0,  999.0,  999.0,  999.0,  999.0,  999.0,  999.0,  999.0,  999.0,  999.0,  999.0
2002/07/25 15:40,  999.0,   -0.1,   -0.2,   -0.2,   -0.4,   -0.3,   -0.3,   -0.3,   -0.3,   -0.3,   -0.3,   -0.4,   -0.3,   -0.3,   -0.4,   -0.3,   -0.4,   -0.3,   -0.1,   -0.1,   -0.0,    0.0,   -0.0,  999.0,  999.0,  999.0,  999.0,    1.2,    1.3,    1.2,    1.3,    1.5,    1.4,    1.2,    1.3,    1.5,    1.9,  999.0,  999.0,  999.0,  999.0,  999.0,  999.0,  999.0,  999.0,  999.0,  999.0,  999.0,  999.0,  999.0,  999.0,  999.0,  999.0,  999.0,  999.0,  999.0,  999.0,  999.0,  999.0,  999.0,  999.0,  999.0,  999.0
2002/07/25 15:50,  999.0,   -0.1,   -0.0,   -0.1,   -0.1,   -0.2,   -0.2,   -0.3,   -0.4,   -0.4,   -0.3,   -0.4,   -0.3,   -0.3,   -0.4,   -0.4,   -0.5,   -0.4,   -0.4,   -0.3,   -0.3,   -0.4,   -0.1,    0.2,    0.1,    0.0,    0.5,    0.4,    0.3,    1.2,    1.4,    1.4,    1.4,    1.3,    1.3,    1.3,    1.6,  999.0,  999.0,  999.0,  999.0,  999.0,  999.0,  999.0,  999.0,  999.0,  999.0,  999.0,  999.0,  999.0,  999.0,  999.0,  999.0,  999.0,  999.0,  999.0,  999.0,  999.0,  999.0,  999.0,  999.0,  999.0,  999.0
2002/07/25 16:00,  999.0,   -0.2,   -0.3,   -0.6,   -0.6,   -0.3,   -0.4,   -0.3,   -0.4,   -0.5,   -0.5,   -0.7,   -0.7,   -0.8,   -0.5,   -0.8,   -0.9,   -0.6,   -0.1,   -0.2,   -0.2,    0.1,    0.1,    0.1,    0.2,    0.2,    0.6,    0.7,    0.8,    1.3,    1.4,    1.3,    1.4,    1.5,    1.5,    1.8,    2.0,    2.3,  999.0,  999.0,  999.0,    2.1,  999.0,  999.0,  999.0,  999.0,  999.0,  999.0,  999.0,  999.0,  999.0,  999.0,  999.0,  999.0,  999.0,    1.9,  999.0,  999.0,  999.0,  999.0,  999.0,  999.0,  999.0
2002/07/25 16:10,  999.0,   -0.3,   -0.4,   -0.7,   -1.1,   -1.1,   -1.1,   -1.0,   -1.0,   -1.1,   -1.4,   -1.2,   -1.2,   -1.1,   -1.2,   -0.9,   -1.1,   -1.4,   -0.8,   -0.7,   -0.5,   -0.7,    0.0,   -0.3,   -0.6,   -0.4,   -0.0,    0.2,    0.7,    1.1,    1.3,    1.4,    1.4,    1.4,    1.3,    1.3,    1.6,    2.0,    2.3,  999.0,  999.0,  999.0,  999.0,  999.0,  999.0,  999.0,  999.0,  999.0,  999.0,  999.0,  999.0,  999.0,  999.0,  999.0,  999.0,  999.0,  999.0,  999.0,  999.0,  999.0,  999.0,  999.0,  999.0
2002/07/25 16:20,  999.0,   -0.2,   -0.3,   -0.7,   -1.5,   -1.4,   -1.2,   -1.3,   -1.4,   -1.4,   -1.4,   -1.2,   -0.8,   -1.0,   -1.1,   -1.0,   -0.2,   -1.0,   -0.3,   -0.1,   -0.8,   -0.1,   -0.3,  999.0,  999.0,  999.0,  999.0,  999.0,  999.0,    1.3,    1.6,    1.9,    1.8,    1.7,    1.6,    1.7,  999.0,    1.9,    2.3,  999.0,  999.0,    2.2,    2.5,  999.0,  999.0,  999.0,  999.0,  999.0,  999.0,  999.0,  999.0,  999.0,  999.0,  999.0,  999.0,  999.0,  999.0,  999.0,  999.0,  999.0,  999.0,  999.0,  999.0
2002/07/25 16:30,  999.0,   -0.1,   -0.3,   -0.4,   -0.8,   -1.0,   -1.0,   -1.1,   -1.2,   -1.3,   -1.3,   -1.2,   -1.3,   -1.4,   -1.5,   -1.4,   -1.3,   -1.5,   -1.3,   -0.3,   -1.1,  999.0,   -0.7,  999.0,   -0.4,   -0.1,  999.0,    0.0,    0.8,  999.0,    1.1,    1.3,    1.5,    1.4,    1.3,    1.3,    1.2,    1.5,    1.8,    2.2,  999.0,  999.0,  999.0,  999.0,  999.0,  999.0,  999.0,  999.0,  999.0,  999.0,  999.0,  999.0,  999.0,  999.0,  999.0,  999.0,  999.0,  999.0,  999.0,  999.0,  999.0,  999.0,  999.0
2002/07/25 16:40,  999.0,   -0.1,   -0.1,   -0.4,   -0.6,   -1.0,   -1.1,   -1.1,   -1.2,   -1.3,   -1.3,   -1.3,   -1.3,   -1.0,   -1.1,   -1.0,   -1.0,   -1.0,   -0.4,   -0.4,   -0.8,   -0.7,   -0.9,  999.0,  999.0,   -0.8,  999.0,   -0.0,  999.0,  999.0,    1.0,    1.2,    1.2,    1.2,    1.2,    1.4,    1.5,    1.6,    2.0,    2.3,    2.4,  999.0,  999.0,  999.0,  999.0,  999.0,  999.0,  999.0,  999.0,  999.0,  999.0,  999.0,  999.0,  999.0,  999.0,  999.0,  999.0,  999.0,  999.0,  999.0,  999.0,  999.0,  999.0
2002/07/25 16:50,  999.0,   -0.0,   -0.1,   -0.4,   -0.6,   -0.6,   -0.5,   -0.5,   -0.5,   -0.7,   -0.8,   -0.9,   -1.0,   -0.9,   -0.9,   -0.7,   -0.5,   -0.4,   -0.5,   -0.5,   -0.1,   -0.6,   -0.8,   -1.2,   -0.7,   -0.5,  999.0,    0.3,   -0.2,  999.0,    0.6,    0.4,    0.6,    0.7,    0.9,    1.1,    1.3,    1.2,    1.5,    1.8,  999.0,  999.0,  999.0,  999.0,  999.0,  999.0,  999.0,  999.0,  999.0,    0.9,  999.0,  999.0,  999.0,  999.0,  999.0,  999.0,  999.0,  999.0,  999.0,  999.0,  999.0,  999.0,  999.0
2002/07/25 17:00,  999.0,   -0.0,   -0.0,   -0.0,   -0.2,   -0.1,    0.1,    0.0,    0.0,   -0.0,   -0.1,   -0.2,   -0.2,   -0.3,   -0.3,   -0.4,   -0.3,   -0.1,   -0.1,   -0.0,   -0.1,    0.0,    0.0,    0.0,    0.3,  999.0,  999.0,    0.5,  999.0,  999.0,  999.0,    0.4,    0.8,    0.7,    0.8,    0.6,    0.7,  999.0,    0.7,    0.9,    0.9,  999.0,    0.9,  999.0,  999.0,  999.0,  999.0,  999.0,  999.0,  999.0,  999.0,  999.0,  999.0,  999.0,  999.0,  999.0,  999.0,  999.0,  999.0,  999.0,  999.0,  999.0,  999.0
2002/07/25 17:10,  999.0,   -0.1,    0.1,   -0.0,   -0.1,    0.1,    0.0,   -0.0,   -0.1,   -0.3,   -0.2,   -0.2,   -0.2,   -0.2,   -0.3,   -0.2,   -0.1,   -0.1,   -0.0,    0.0,    0.0,    0.0,    0.1,  999.0,    0.2,  999.0,    0.7,    0.7,    0.6,    0.5,    0.5,    0.5,    0.6,    0.8,    1.1,    0.7,    0.4,    0.5,    0.7,    0.9,    0.5,  999.0,    0.5,    0.6,  999.0,  999.0,  999.0,  999.0,  999.0,  999.0,  999.0,  999.0,  999.0,  999.0,  999.0,  999.0,  999.0,  999.0,  999.0,  999.0,  999.0,  999.0,  999.0
2002/07/25 17:20,  999.0,   -0.1,   -0.0,    0.1,    0.2,    0.3,    0.2,    0.1,    0.2,    0.0,    0.0,    0.1,    0.2,    0.3,    0.3,    0.4,    0.2,    0.2,    0.1,    0.0,    0.1,    0.2,    0.1,    0.7,    0.8,    0.7,  999.0,    0.3,    0.6,    0.5,    0.6,    0.6,    0.7,    0.7,    1.1,    0.5,    0.4,    0.7,    0.6,    0.7,    1.0,  999.0,  999.0,  999.0,  999.0,  999.0,  999.0,  999.0,  999.0,  999.0,  999.0,  999.0,  999.0,  999.0,  999.0,  999.0,  999.0,  999.0,  999.0,  999.0,  999.0,  999.0,    0.7
2002/07/25 17:30,  999.0,   -0.1,   -0.1,   -0.2,   -0.3,   -0.2,    0.0,    0.1,    0.0,    0.0,   -0.1,    0.1,    0.2,    0.4,    0.5,    0.3,    0.2,    0.6,    0.6,    0.1,    0.2,    0.6,    0.8,    0.5,    0.6,    0.6,  999.0,  999.0,  999.0,    0.3,    0.4,    0.3,    0.3,  999.0,    0.1,    0.2,  999.0,   -0.2,   -0.0,    0.0,  999.0,    0.1,  999.0,  999.0,  999.0,  999.0,  999.0,  999.0,  999.0,  999.0,  999.0,  999.0,  999.0,  999.0,  999.0,  999.0,  999.0,  999.0,  999.0,  999.0,  999.0,  999.0,  999.0
2002/07/25 17:40,  999.0,   -0.1,    0.1,    0.2,    0.1,    0.1,    0.1,    0.1,    0.1,    0.1,    0.2,    0.3,    0.3,    0.4,    0.4,    0.3,    0.2,    0.3,    0.2,    0.1,    0.3,    0.2,    0.1,   -0.0,    0.1,    0.2,  999.0,    0.2,  999.0,    0.6,  999.0,    0.1,    0.5,    0.8,    0.4,    0.4,    0.3,    0.2,    0.1,    0.3,    0.3,    0.2,    0.3,    0.4,  999.0,  999.0,  999.0,  999.0,  999.0,  999.0,  999.0,  999.0,  999.0,  999.0,  999.0,  999.0,  999.0,  999.0,  999.0,  999.0,  999.0,  999.0,  999.0
2002/07/25 17:50,  999.0,   -0.1,    0.2,    0.1,    0.0,   -0.2,   -0.3,   -0.4,   -0.4,   -0.1,   -0.0,    0.0,    0.1,    0.1,    0.1,   -0.0,   -0.0,   -0.1,   -0.0,   -0.0,    0.0,    0.1,    0.2,    0.3,    0.5,    0.6,  999.0,  999.0,  999.0,    0.8,  999.0,    0.9,    0.9,    1.0,  999.0,    0.8,    0.6,    0.5,    0.5,    0.6,    0.1,  999.0,    0.5,    0.5,    0.5,  999.0,  999.0,    0.5,  999.0,  999.0,  999.0,  999.0,  999.0,  999.0,  999.0,  999.0,  999.0,  999.0,  999.0,  999.0,  999.0,    0.8,  999.0
2002/07/25 18:00,  999.0,   -0.0,   -0.1,    0.0,   -0.1,   -0.2,   -0.0,   -0.1,    0.1,    0.1,   -0.2,   -0.3,   -0.2,   -0.2,   -0.2,   -0.2,   -0.2,   -0.1,   -0.0,   -0.0,   -0.3,   -0.1,   -0.0,    0.0,   -0.0,   -0.2,    0.1,    0.2,    0.3,  999.0,  999.0,    0.5,    0.5,    0.7,    0.6,    0.6,    0.5,    0.4,    0.4,    0.5,  999.0,  999.0,    0.3,    0.3,  999.0,  999.0,    0.4,  999.0,  999.0,  999.0,  999.0,  999.0,  999.0,  999.0,  999.0,  999.0,  999.0,  999.0,  999.0,  999.0,  999.0,  999.0,  999.0
2002/07/25 18:10,  999.0,    0.0,    0.0,   -0.1,   -0.1,   -0.5,   -0.4,   -0.3,   -0.1,   -0.1,   -0.3,   -0.5,   -0.4,   -0.4,   -0.3,   -0.4,   -0.4,   -0.3,   -0.0,   -0.0,   -0.2,   -0.1,   -0.2,   -0.2,   -0.3,   -0.0,    0.0,   -0.2,    0.0,  999.0,  999.0,    0.2,    0.1,    0.6,    0.6,    0.2,    0.4,    0.2,    0.2,    0.2,    0.2,  999.0,  999.0,    0.1,    0.2,    0.2,  999.0,  999.0,  999.0,  999.0,  999.0,  999.0,  999.0,  999.0,  999.0,  999.0,  999.0,  999.0,  999.0,  999.0,  999.0,  999.0,  999.0
2002/07/25 18:20,  999.0,   -0.1,   -0.1,   -0.2,   -0.3,   -0.1,   -0.1,   -0.0,   -0.1,   -0.1,    0.1,   -0.1,   -0.0,    0.1,    0.0,    0.1,   -0.1,   -0.1,   -0.1,    0.0,   -0.0,   -0.0,   -0.1,  999.0,   -0.1,    0.0,    0.3,    0.2,    0.1,  999.0,  999.0,    0.3,  999.0,  999.0,    0.6,    0.4,    0.2,    0.1,    0.1,   -0.0,    0.2,  999.0,  999.0,  999.0,  999.0,  999.0,  999.0,  999.0,  999.0,  999.0,    0.6,  999.0,  999.0,  999.0,  999.0,  999.0,  999.0,  999.0,  999.0,  999.0,  999.0,  999.0,  999.0
2002/07/25 18:30,  999.0,    0.1,    0.3,    0.1,    0.3,    0.3,    0.4,    0.2,    0.3,    0.3,    0.4,    0.4,    0.6,    0.7,    0.7,    0.6,    0.5,    0.5,    0.2,    0.5,    0.4,    0.2,    0.2,  999.0,    0.5,    0.4,    0.6,  999.0,  999.0,  999.0,    0.3,    0.6,    0.8,    0.8,    0.6,    0.5,    0.2,    0.3,    0.3,    0.4,  999.0,    0.3,  999.0,  999.0,  999.0,  999.0,  999.0,  999.0,  999.0,  999.0,  999.0,  999.0,  999.0,  999.0,  999.0,  999.0,  999.0,  999.0,  999.0,  999.0,  999.0,    0.3,  999.0
2002/07/25 18:40,  999.0,    0.1,    0.3,    0.3,    0.3,    0.4,    0.3,    0.4,    0.6,    0.5,    0.5,    0.8,    0.9,    0.9,    0.9,    0.9,    0.9,    0.9,    0.7,    0.8,    0.9,    0.2,    0.8,  999.0,  999.0,    1.3,  999.0,    1.0,    1.3,    1.1,    1.1,    1.0,    1.1,    1.2,    1.1,    1.0,    1.0,    1.1,    1.1,    1.1,    1.1,  999.0,  999.0,    0.6,  999.0,  999.0,    0.5,  999.0,  999.0,  999.0,  999.0,  999.0,    0.5,  999.0,  999.0,  999.0,  999.0,  999.0,  999.0,  999.0,  999.0,  999.0,  999.0
2002/07/25 18:50,  999.0,    0.0,    0.1,    0.3,    0.4,    0.1,   -0.0,   -0.0,    0.0,    0.3,    0.5,    0.2,    0.4,    0.4,    0.4,    0.3,    0.3,    0.3,    0.2,    0.2,    0.2,    0.1,    0.3,  999.0,    0.1,    0.5,    0.5,    0.5,  999.0,    0.7,    0.6,  999.0,    0.6,    0.4,    0.5,    0.3,    0.3,    0.4,    0.5,    0.5,    0.4,    0.4,    0.4,    0.4,    0.4,    0.5,    0.4,    0.5,  999.0,  999.0,  999.0,    0.6,  999.0,  999.0,  999.0,  999.0,  999.0,  999.0,  999.0,  999.0,  999.0,  999.0,  999.0
2002/07/25 19:00,  999.0,   -0.0,   -0.1,   -0.3,   -0.4,   -0.5,   -0.8,   -1.1,   -0.7,   -0.8,   -1.1,   -0.8,   -0.6,   -0.7,   -0.7,   -0.5,   -0.5,   -0.6,   -0.5,   -0.4,   -0.3,   -0.3,   -0.1,   -0.6,   -0.3,   -0.4,   -0.2,    0.3,   -0.3,   -0.2,   -0.1,   -0.0,   -0.1,    0.1,    0.1,    0.1,    0.1,    0.1,    0.1,    0.2,    0.3,  999.0,  999.0,  999.0,    0.7,    0.9,    0.9,  999.0,  999.0,  999.0,    1.0,    1.0,    1.1,  999.0,  999.0,  999.0,  999.0,  999.0,  999.0,  999.0,  999.0,  999.0,  999.0
2002/07/25 19:10,  999.0,   -0.0,   -0.2,   -0.3,   -0.4,   -0.7,   -0.8,   -1.1,   -0.8,   -0.8,   -1.1,   -0.9,   -0.9,   -0.9,   -0.8,   -0.8,   -0.8,   -0.9,   -0.8,   -0.9,   -0.8,   -0.9,   -0.9,   -1.1,   -1.1,   -1.0,   -0.9,   -0.8,   -0.6,   -0.3,   -0.0,   -0.3,   -0.3,   -0.2,   -0.3,   -0.7,   -0.8,   -0.4,   -0.4,   -0.2,  999.0,  999.0,  999.0,  999.0,  999.0,    0.4,    0.3,    0.4,    0.4,  999.0,  999.0,    0.7,    0.4,  999.0,  999.0,  999.0,  999.0,  999.0,  999.0,  999.0,  999.0,  999.0,  999.0
2002/07/25 19:20,  999.0,   -0.1,   -0.1,   -0.2,   -0.4,   -0.8,   -0.7,   -0.9,   -0.5,   -0.5,   -0.5,   -0.4,   -0.4,   -0.6,   -0.6,   -0.7,   -0.8,   -1.0,   -1.1,   -1.0,   -1.2,   -1.1,   -1.2,   -1.2,   -1.1,   -1.2,   -1.2,   -1.1,   -0.7,   -0.7,   -0.7,   -0.8,   -0.8,   -0.8,   -0.6,   -0.6,   -0.6,   -0.7,  999.0,  999.0,  999.0,  999.0,   -1.1,  999.0,  999.0,   -0.0,   -0.0,   -0.0,    0.3,  999.0,  999.0,  999.0,  999.0,  999.0,  999.0,  999.0,  999.0,  999.0,  999.0,  999.0,  999.0,  999.0,  999.0
2002/07/25 19:30,  999.0,    0.0,    0.1,   -0.0,   -0.4,   -0.5,   -0.7,   -0.6,   -0.6,   -0.3,   -0.1,   -0.0,   -0.1,   -0.3,   -0.3,   -0.4,   -0.5,   -0.6,   -0.6,   -0.7,   -0.7,   -0.7,   -0.8,   -0.8,  999.0,   -0.4,   -0.5,   -0.4,   -0.3,   -0.1,   -0.1,   -0.2,    0.1,    0.1,    0.3,    0.7,    0.3,    0.8,  999.0,  999.0,  999.0,  999.0,    0.3,  999.0,  999.0,   -0.8,    0.0,   -0.0,    0.1,   -1.6,  999.0,  999.0,  999.0,  999.0,  999.0,  999.0,  999.0,  999.0,  999.0,  999.0,  999.0,  999.0,  999.0
2002/07/25 19:40,  999.0,    0.0,    0.1,    0.2,    0.4,    0.1,   -0.3,    0.1,    0.4,    0.5,    0.7,    0.7,    0.6,    0.6,    0.5,    0.5,    0.4,    0.3,    0.2,    0.1,    0.0,   -0.0,   -0.1,   -0.1,   -0.1,    0.0,    0.0,   -0.1,    0.1,   -0.1,   -0.2,    0.0,    0.1,    0.3,    0.5,    1.2,    1.4,    1.2,    1.1,  999.0,  999.0,  999.0,    0.8,  999.0,  999.0,  999.0,  999.0,    0.6,    0.5,  999.0,  999.0,  999.0,  999.0,  999.0,  999.0,  999.0,  999.0,  999.0,  999.0,  999.0,  999.0,  999.0,  999.0
2002/07/25 19:50,  999.0,    0.2,    0.3,    0.5,   -0.0,    0.5,    0.4,    0.1,    0.1,    0.5,    0.7,    0.6,    0.7,    0.7,    0.7,    0.7,    0.6,    0.6,    0.5,    0.3,    0.3,    0.3,  999.0,    0.3,    0.5,    0.5,    0.5,    0.6,    0.7,    0.7,    0.8,    0.8,    0.9,    1.0,    1.5,    2.0,    2.1,    2.0,  999.0,  999.0,  999.0,  999.0,  999.0,  999.0,  999.0,  999.0,  999.0,  999.0,  999.0,  999.0,  999.0,  999.0,  999.0,  999.0,  999.0,  999.0,  999.0,  999.0,  999.0,  999.0,  999.0,  999.0,  999.0
2002/07/25 20:00,  999.0,    0.1,   -0.1,   -0.1,   -0.1,   -0.4,   -0.2,   -0.2,   -0.2,    0.1,    0.2,    0.2,    0.2,    0.2,    0.1,    0.0,   -0.0,   -0.1,   -0.1,   -0.1,   -0.1,   -0.1,    0.0,   -0.5,   -0.5,   -0.3,   -0.2,   -0.2,   -0.2,   -0.2,    0.0,    0.2,    0.4,    0.6,    0.9,    0.8,    1.1,    0.2,  999.0,  999.0,  999.0,  999.0,  999.0,  999.0,  999.0,  999.0,  999.0,    0.3,    0.2,  999.0,  999.0,  999.0,  999.0,  999.0,  999.0,  999.0,  999.0,  999.0,  999.0,  999.0,  999.0,  999.0,  999.0
2002/07/25 20:10,  999.0,   -0.0,   -0.1,   -0.6,   -0.7,   -0.8,   -0.7,   -0.5,   -0.7,   -0.1,   -0.5,   -0.2,   -0.1,   -0.2,   -0.1,   -0.1,   -0.1,   -0.1,   -0.1,   -0.2,   -0.2,   -0.1,   -0.0,   -0.0,    0.1,  999.0,    0.0,    0.1,  999.0,    0.2,    0.3,    0.2,    0.5,    0.6,    0.7,    0.7,    0.9,  999.0,  999.0,  999.0,  999.0,  999.0,  999.0,  999.0,  999.0,  999.0,  999.0,    0.6,    0.5,  999.0,  999.0,  999.0,  999.0,  999.0,  999.0,  999.0,  999.0,  999.0,  999.0,  999.0,  999.0,  999.0,  999.0
2002/07/25 20:20,  999.0,   -0.1,   -0.1,   -0.2,   -0.9,   -0.6,   -0.7,   -0.5,   -0.3,    0.0,    0.1,    0.1,    0.1,    0.1,    0.0,    0.0,   -0.0,   -0.1,   -0.1,   -0.1,   -0.1,   -0.1,   -0.1,   -0.0,   -0.1,  999.0,    0.0,    0.2,    0.1,    0.4,    0.4,    0.5,    0.7,    0.9,    0.9,    0.9,    0.8,  999.0,  999.0,    0.6,  999.0,  999.0,  999.0,  999.0,  999.0,  999.0,    0.8,  999.0,    0.8,    0.7,  999.0,  999.0,  999.0,  999.0,  999.0,  999.0,  999.0,  999.0,  999.0,  999.0,  999.0,  999.0,  999.0
2002/07/25 20:30,  999.0,   -0.3,   -0.3,   -0.5,   -0.6,   -0.6,   -0.9,   -0.7,   -0.3,   -0.5,   -0.3,   -0.3,   -0.3,   -0.3,   -0.3,   -0.3,   -0.2,   -0.2,   -0.1,   -0.1,   -0.1,   -0.1,   -0.0,   -0.0,    0.1,    0.6,    0.5,    0.6,    0.8,    0.9,    1.1,    1.3,    1.5,    1.7,    1.8,    1.9,    2.6,  999.0,  999.0,  999.0,  999.0,  999.0,  999.0,  999.0,  999.0,  999.0,    1.0,  999.0,    0.6,    0.6,  999.0,  999.0,  999.0,  999.0,  999.0,  999.0,  999.0,  999.0,  999.0,  999.0,  999.0,  999.0,  999.0
2002/07/25 20:40,  999.0,   -0.1,   -0.3,   -0.2,   -0.4,   -0.5,   -0.5,   -0.5,   -0.4,   -0.4,   -0.4,   -0.5,   -0.4,   -0.5,   -0.5,   -0.4,   -0.4,   -0.4,   -0.4,   -0.3,   -0.4,   -0.1,    0.1,   -0.2,  999.0,    0.3,    0.3,    0.4,    0.7,    0.7,    0.9,    1.1,    1.3,    1.6,    1.7,    1.7,  999.0,  999.0,  999.0,  999.0,  999.0,  999.0,  999.0,  999.0,  999.0,  999.0,  999.0,  999.0,  999.0,  999.0,  999.0,  999.0,  999.0,  999.0,  999.0,  999.0,  999.0,  999.0,  999.0,  999.0,  999.0,  999.0,  999.0
2002/07/25 20:50,  999.0,   -0.0,   -0.0,   -0.0,   -0.2,   -0.3,   -0.5,   -0.7,   -0.4,   -0.1,   -0.2,   -0.2,   -0.1,   -0.2,   -0.2,   -0.1,   -0.2,   -0.2,   -0.2,   -0.1,   -0.1,   -0.1,   -0.0,    0.2,  999.0,    0.4,    0.4,    0.5,    0.6,    0.5,    1.0,    1.0,    1.0,    1.0,    1.0,    1.0,    1.5,  999.0,  999.0,  999.0,  999.0,  999.0,  999.0,  999.0,  999.0,  999.0,  999.0,  999.0,  999.0,  999.0,  999.0,  999.0,  999.0,  999.0,  999.0,  999.0,  999.0,  999.0,  999.0,  999.0,  999.0,  999.0,    0.9
2002/07/25 21:00,  999.0,    0.1,    0.2,    0.2,    0.1,    0.1,    0.4,    0.7,    0.8,    0.7,    0.6,    0.7,    0.7,    0.7,    0.6,    0.5,    0.5,    0.5,    0.4,    0.6,    0.7,    0.9,    0.3,  999.0,    0.9,    0.8,    1.1,    1.1,    1.2,    1.4,    1.2,    1.2,    1.2,    1.0,    1.1,    1.1,    1.0,  999.0,  999.0,  999.0,  999.0,  999.0,  999.0,  999.0,  999.0,  999.0,  999.0,  999.0,  999.0,  999.0,  999.0,  999.0,  999.0,  999.0,  999.0,  999.0,  999.0,  999.0,  999.0,  999.0,  999.0,  999.0,  999.0
2002/07/25 21:10,  999.0,    0.1,    0.2,    0.2,    0.2,    0.2,    0.2,    0.5,    0.5,    0.6,    0.5,    0.6,    0.5,    0.5,    0.5,    0.4,    0.5,    0.6,    0.5,    0.6,    0.7,    0.5,    0.6,  999.0,    0.6,    0.6,    0.7,    0.7,    0.7,    0.8,    0.7,    0.7,    0.7,    0.7,    0.8,    0.8,    1.0,  999.0,  999.0,  999.0,  999.0,  999.0,  999.0,    0.4,  999.0,  999.0,  999.0,  999.0,  999.0,  999.0,  999.0,  999.0,   -0.3,  999.0,  999.0,  999.0,  999.0,  999.0,  999.0,  999.0,  999.0,  999.0,  999.0
2002/07/25 21:20,  999.0,   -0.0,   -0.2,   -0.3,   -0.0,   -0.1,    0.0,    0.3,    0.2,    0.3,    0.3,    0.3,    0.2,    0.1,    0.1,    0.1,    0.2,    0.2,    0.1,    0.1,    0.2,    0.1,    0.1,    0.2,  999.0,  999.0,    0.5,    0.5,    0.8,    0.7,    0.6,    0.6,    0.5,    0.6,    0.6,    0.4,    0.5,    0.3,    0.4,  999.0,  999.0,  999.0,    0.1,  999.0,  999.0,  999.0,  999.0,  999.0,  999.0,  999.0,  999.0,   -0.3,  999.0,  999.0,  999.0,  999.0,  999.0,  999.0,  999.0,  999.0,  999.0,  999.0,  999.0
2002/07/25 21:30,  999.0,    0.0,   -0.0,    0.0,    0.0,   -0.0,    0.2,    0.4,    0.4,    0.3,    0.3,    0.2,    0.2,    0.2,    0.1,    0.1,    0.1,    0.1,    0.0,   -0.0,   -0.0,    0.0,   -0.1,   -0.1,  999.0,    0.4,    0.2,    0.4,    0.4,    0.4,    0.4,    0.3,    0.2,    0.0,   -0.2,  999.0,   -0.4,   -0.1,  999.0,  999.0,  999.0,   -0.2,  999.0,  999.0,  999.0,  999.0,  999.0,  999.0,  999.0,  999.0,  999.0,  999.0,  999.0,  999.0,  999.0,  999.0,  999.0,  999.0,  999.0,  999.0,  999.0,  999.0,  999.0
2002/07/25 21:40,  999.0,   -0.0,    0.1,   -0.0,    0.0,   -0.1,    0.0,    0.0,    0.1,    0.2,    0.1,    0.1,    0.1,    0.0,    0.0,   -0.1,   -0.2,   -0.2,   -0.1,   -0.1,   -0.1,   -0.1,   -0.1,  999.0,    0.2,    0.3,    0.4,    0.4,    0.4,    0.3,    0.3,    0.0,   -0.0,   -0.0,   -0.0,  999.0,   -0.0,  999.0,  999.0,  999.0,  999.0,  999.0,  999.0,  999.0,  999.0,  999.0,  999.0,  999.0,  999.0,  999.0,    0.0,  999.0,  999.0,  999.0,  999.0,  999.0,  999.0,  999.0,  999.0,  999.0,  999.0,  999.0,  999.0
2002/07/25 21:50,  999.0,   -0.0,    0.1,    0.1,   -0.0,    0.1,    0.4,    0.5,    0.5,    0.4,    0.3,    0.3,    0.2,    0.2,    0.2,    0.1,    0.1,    0.1,    0.0,    0.0,   -0.0,    0.0,    0.2,    0.2,    0.2,    0.2,    0.3,    0.3,    0.4,    0.4,    0.3,    0.3,    0.5,    0.6,    0.6,  999.0,  999.0,    0.4,    0.5,    0.6,  999.0,    0.5,  999.0,  999.0,  999.0,  999.0,  999.0,  999.0,  999.0,  999.0,  999.0,  999.0,  999.0,  999.0,  999.0,  999.0,  999.0,  999.0,  999.0,  999.0,  999.0,  999.0,  999.0
2002/07/25 22:00,  999.0,   -0.0,    0.0,    0.2,    0.3,    0.2,    0.5,    0.6,    0.5,    0.5,    0.4,    0.5,    0.4,    0.4,    0.4,    0.3,    0.2,    0.2,    0.2,    0.3,    0.4,    0.3,    0.3,   -0.5,    0.3,    0.4,    0.5,    0.6,    0.7,    1.0,    0.9,    1.0,    1.4,    1.8,    2.1,    2.3,    2.1,  999.0,  999.0,    1.3,    1.3,  999.0,  999.0,    0.7,  999.0,  999.0,  999.0,  999.0,  999.0,  999.0,  999.0,  999.0,  999.0,  999.0,  999.0,  999.0,  999.0,  999.0,  999.0,  999.0,  999.0,  999.0,  999.0
2002/07/25 22:10,  999.0,   -0.0,    0.1,    0.2,    0.1,    0.5,    0.5,    0.8,    0.9,    0.9,    0.9,    0.9,    0.9,    0.9,    0.9,    0.5,    0.6,    0.6,    0.6,    0.5,    0.4,    0.6,    0.7,    0.9,    0.7,    0.7,    0.7,    0.7,    0.8,    0.9,  999.0,    1.1,    1.2,    1.7,    1.8,    1.9,    1.9,    1.7,  999.0,    1.4,  999.0,  999.0,  999.0,  999.0,  999.0,  999.0,  999.0,  999.0,  999.0,  999.0,  999.0,  999.0,  999.0,  999.0,  999.0,  999.0,  999.0,  999.0,  999.0,  999.0,  999.0,  999.0,  999.0
2002/07/25 22:20,  999.0,   -0.1,    0.0,    0.1,    0.1,    0.2,    0.1,    0.4,    0.5,    0.6,    0.8,    0.8,    0.7,    0.7,    0.5,    0.3,    0.3,    0.3,    0.2,    0.0,    0.2,    0.2,    0.3,    0.4,    0.3,    0.4,    0.3,    0.2,    0.3,    0.4,    0.1,    0.4,    0.7,    0.8,    1.0,    1.2,    0.9,  999.0,  999.0,  999.0,  999.0,  999.0,  999.0,    0.4,    0.3,    0.1,  999.0,  999.0,  999.0,  999.0,  999.0,  999.0,  999.0,  999.0,  999.0,  999.0,  999.0,  999.0,  999.0,  999.0,  999.0,  999.0,  999.0
2002/07/25 22:30,  999.0,    0.0,    0.2,    0.2,    0.4,    0.6,    0.7,    0.8,    0.8,    0.8,    0.9,    0.8,    0.7,    0.6,    0.5,    0.3,    0.1,   -0.0,   -0.0,    0.0,   -0.1,   -0.0,   -0.2,   -0.3,   -0.4,   -0.4,   -0.4,   -0.4,   -0.5,   -0.5,   -0.3,    0.1,    0.3,    0.6,    0.8,  999.0,  999.0,  999.0,  999.0,  999.0,  999.0,  999.0,  999.0,    0.4,    0.5,  999.0,    0.5,  999.0,  999.0,  999.0,  999.0,    0.2,  999.0,  999.0,  999.0,  999.0,  999.0,  999.0,  999.0,  999.0,  999.0,  999.0,  999.0
2002/07/25 22:40,  999.0,    0.0,    0.2,    0.3,    0.4,    0.6,    0.7,    1.0,    1.1,    1.2,    1.1,    1.0,    1.0,    1.0,    0.8,    0.7,    0.5,    0.4,    0.2,    0.1,    0.3,    0.4,    0.0,   -0.1,   -0.3,   -0.2,   -0.2,   -0.3,   -0.4,   -0.0,   -0.1,   -0.1,   -0.1,   -0.0,   -0.1,  999.0,    0.4,  999.0,  999.0,  999.0,  999.0,  999.0,   -0.6,   -0.2,  999.0,  999.0,  999.0,  999.0,  999.0,  999.0,  999.0,  999.0,  999.0,  999.0,  999.0,  999.0,  999.0,  999.0,  999.0,  999.0,  999.0,  999.0,  999.0
2002/07/25 22:50,  999.0,    0.0,    0.0,    0.0,   -0.0,    0.1,    0.2,    0.4,    0.5,    0.6,    0.7,    0.6,    0.5,    0.5,    0.3,    0.2,    0.0,   -0.2,   -0.2,   -0.1,   -0.1,   -0.1,   -0.2,   -0.3,   -0.4,   -0.3,   -0.4,   -0.4,   -0.5,   -0.6,   -0.7,   -0.6,   -0.5,   -0.3,   -0.1,  999.0,  999.0,  999.0,  999.0,  999.0,   -0.5,  999.0,   -0.4,  999.0,   -0.7,   -0.7,  999.0,  999.0,  999.0,  999.0,  999.0,  999.0,  999.0,  999.0,  999.0,  999.0,  999.0,  999.0,  999.0,  999.0,  999.0,  999.0,  999.0
2002/07/25 23:00,  999.0,   -0.3,   -0.0,    0.1,   -0.0,   -0.0,    0.2,    0.4,    0.5,    0.6,    0.6,    0.7,    0.7,    0.6,    0.5,    0.4,    0.3,    0.2,    0.1,    0.1,    0.0,    0.0,    0.2,    0.2,    0.2,    0.3,    0.3,    0.5,   -0.1,    0.1,    0.0,    0.2,   -0.0,    0.3,  999.0,  999.0,  999.0,  999.0,  999.0,  999.0,   -0.4,  999.0,  999.0,  999.0,   -0.9,  999.0,  999.0,  999.0,  999.0,  999.0,  999.0,  999.0,  999.0,  999.0,  999.0,  999.0,  999.0,  999.0,  999.0,   -0.4,  999.0,  999.0,  999.0
2002/07/25 23:10,  999.0,   -0.1,   -0.2,   -0.2,   -0.1,    0.1,    0.2,    0.3,    0.4,    0.7,    0.7,    0.5,    0.4,    0.2,    0.2,    0.2,    0.0,   -0.2,   -0.1,   -0.2,   -0.1,   -0.1,   -0.2,   -0.2,   -0.0,   -0.1,    0.1,    0.0,   -0.0,   -0.1,    0.1,    0.3,  999.0,  999.0,  999.0,  999.0,  999.0,  999.0,  999.0,    0.6,    0.6,  999.0,  999.0,  999.0,  999.0,  999.0,  999.0,  999.0,  999.0,  999.0,  999.0,  999.0,  999.0,  999.0,  999.0,  999.0,  999.0,  999.0,  999.0,  999.0,  999.0,  999.0,  999.0
2002/07/25 23:20,  999.0,   -0.1,   -0.2,   -0.2,   -0.4,   -0.2,    0.0,    0.1,    0.1,    0.3,    0.2,    0.1,   -0.0,   -0.1,   -0.2,   -0.2,   -0.1,   -0.1,   -0.3,   -0.2,   -0.2,   -0.3,   -0.2,   -0.2,   -0.1,   -0.1,   -0.0,   -0.0,   -0.2,    0.2,    0.3,    0.5,  999.0,  999.0,  999.0,  999.0,  999.0,  999.0,  999.0,    0.6,    0.8,    0.6,  999.0,  999.0,  999.0,  999.0,  999.0,  999.0,  999.0,  999.0,  999.0,  999.0,  999.0,  999.0,  999.0,  999.0,  999.0,  999.0,  999.0,  999.0,  999.0,  999.0,    0.9
2002/07/25 23:30,  999.0,   -0.1,    0.1,    0.2,    0.3,    0.4,    0.4,    0.4,    0.8,    0.8,    0.7,    0.5,    0.4,    0.2,    0.2,    0.1,    0.0,    0.1,    0.1,    0.2,    0.3,    0.3,    0.4,    0.4,    0.6,    0.5,    0.5,    0.5,    0.5,    0.7,    0.8,    0.9,  999.0,  999.0,    1.2,  999.0,  999.0,  999.0,  999.0,  999.0,    0.6,  999.0,  999.0,  999.0,  999.0,  999.0,  999.0,  999.0,  999.0,  999.0,  999.0,  999.0,  999.0,  999.0,  999.0,  999.0,  999.0,  999.0,  999.0,  999.0,  999.0,  999.0,  999.0
2002/07/25 23:40,  999.0,    0.1,    0.3,    0.5,    0.8,    0.9,    1.0,    1.2,    1.2,    1.2,    1.1,    0.9,    0.9,    0.8,    0.7,    0.5,    0.5,    0.7,    0.6,    0.8,    0.9,    0.9,    1.0,    1.0,    1.1,    1.1,    1.1,    1.2,    1.2,    1.4,    1.6,    1.7,  999.0,  999.0,    1.8,    1.9,    1.7,  999.0,    1.8,  999.0,  999.0,  999.0,    1.2,  999.0,  999.0,  999.0,  999.0,  999.0,  999.0,  999.0,    1.2,  999.0,    0.9,  999.0,  999.0,  999.0,  999.0,  999.0,  999.0,  999.0,  999.0,  999.0,  999.0
2002/07/25 23:50,  999.0,    0.0,    0.1,    0.4,    0.5,    0.5,    0.6,    0.9,    1.0,    1.2,    1.0,    0.8,    0.7,    0.6,    0.6,    0.3,    0.2,    0.3,    0.4,    0.5,    0.6,    0.6,    0.6,    0.6,    0.5,    0.4,    0.4,    0.5,    0.7,    0.7,    0.7,    0.6,  999.0,    0.6,    0.7,    0.7,    0.8,  999.0,  999.0,  999.0,  999.0,  999.0,  999.0,  999.0,  999.0,  999.0,  999.0,  999.0,  999.0,  999.0,  999.0,  999.0,    0.7,  999.0,  999.0,  999.0,  999.0,  999.0,  999.0,  999.0,  999.0,  999.0,  999.0
